Time,TemperatureF,DewpointF,PressureIn,WindDirection,WindDirectionDegrees,WindSpeedMPH,WindSpeedGustMPH,Humidity,HourlyPrecipIn,Conditions,Clouds,dailyrainin,SoftwareType,DateUTC
2013-08-30 00:01:00,71.8,40.4,29.97,ESE,112,4.3,4.3,32,0.00,,---,0.00,VWS V14.00,2013-08-30 04:01:00,
2013-08-30 00:02:00,71.8,39.5,30.00,ESE,112,4.3,5.4,31,0.00,,---,0.00,VWS V14.00,2013-08-30 04:02:00,
2013-08-30 00:03:00,71.8,39.5,30.00,East,90,3.6,4.9,31,0.00,,---,0.00,VWS V14.00,2013-08-30 04:03:00,
2013-08-30 00:05:00,71.8,39.5,30.00,ESE,112,3.8,5.6,31,0.00,,---,0.00,VWS V14.00,2013-08-30 04:05:00,
2013-08-30 00:07:00,71.8,39.5,30.00,ESE,112,3.1,5.6,31,0.00,,---,0.00,VWS V14.00,2013-08-30 04:07:00,
2013-08-30 00:11:00,71.8,40.4,30.00,ESE,112,3.8,4.7,32,0.00,,---,0.00,VWS V14.00,2013-08-30 04:11:00,
2013-08-30 00:12:00,71.8,39.5,30.00,SE,135,6.5,6.7,31,0.00,,---,0.00,VWS V14.00,2013-08-30 04:12:00,
2013-08-30 00:13:00,71.8,39.5,30.00,East,90,4.3,6.5,31,0.00,,---,0.00,VWS V14.00,2013-08-30 04:13:00,
2013-08-30 00:14:00,71.8,39.5,30.00,ESE,112,3.4,4.3,31,0.00,,---,0.00,VWS V14.00,2013-08-30 04:14:00,
2013-08-30 00:15:00,71.8,39.5,30.00,East,90,2.9,3.4,31,0.00,,---,0.00,VWS V14.00,2013-08-30 04:15:00,
2013-08-30 00:17:00,71.8,39.5,30.00,ESE,112,4.7,5.6,31,0.00,,---,0.00,VWS V14.00,2013-08-30 04:17:00,
2013-08-30 00:18:00,71.8,39.5,30.00,ESE,112,4.3,4.7,31,0.00,,---,0.00,VWS V14.00,2013-08-30 04:18:00,
2013-08-30 00:20:00,71.8,39.5,30.00,SE,135,3.1,4.0,31,0.00,,---,0.00,VWS V14.00,2013-08-30 04:20:00,
2013-08-30 00:22:00,71.8,40.4,30.00,East,90,3.4,3.6,32,0.00,,---,0.00,VWS V14.00,2013-08-30 04:22:00,
2013-08-30 00:23:00,71.8,40.4,30.00,ESE,112,2.9,3.4,32,0.00,,---,0.00,VWS V14.00,2013-08-30 04:23:00,
2013-08-30 00:26:00,71.8,40.4,30.00,ESE,112,3.4,3.4,32,0.00,,---,0.00,VWS V14.00,2013-08-30 04:26:00,
2013-08-30 00:28:00,71.8,40.4,30.00,East,90,3.8,3.8,32,0.00,,---,0.00,VWS V14.00,2013-08-30 04:28:00,
2013-08-30 00:31:00,71.8,40.4,30.00,ESE,112,5.4,5.4,32,0.00,,---,0.00,VWS V14.00,2013-08-30 04:31:00,
2013-08-30 00:33:00,71.8,40.4,29.97,ESE,112,3.1,4.3,32,0.00,,---,0.00,VWS V14.00,2013-08-30 04:33:00,
2013-08-30 00:35:00,71.8,40.4,29.97,ESE,112,5.4,5.4,32,0.00,,---,0.00,VWS V14.00,2013-08-30 04:35:00,
2013-08-30 00:36:00,71.8,40.4,29.97,ESE,112,6.0,6.7,32,0.00,,---,0.00,VWS V14.00,2013-08-30 04:36:00,
2013-08-30 00:39:00,71.8,40.4,29.97,ENE,68,2.9,5.6,32,0.00,,---,0.00,VWS V14.00,2013-08-30 04:39:00,
2013-08-30 00:40:00,72.0,40.5,29.97,East,90,3.8,3.8,32,0.00,,---,0.00,VWS V14.00,2013-08-30 04:40:00,
2013-08-30 00:41:00,72.0,40.5,29.97,ESE,112,4.3,4.9,32,0.00,,---,0.00,VWS V14.00,2013-08-30 04:41:00,
2013-08-30 00:42:00,72.0,40.5,29.97,ESE,112,4.0,4.3,32,0.00,,---,0.00,VWS V14.00,2013-08-30 04:42:00,
2013-08-30 00:45:00,72.0,40.5,29.97,East,90,3.8,5.8,32,0.00,,---,0.00,VWS V14.00,2013-08-30 04:45:00,
2013-08-30 00:46:00,72.0,40.5,29.97,ESE,112,2.5,4.3,32,0.00,,---,0.00,VWS V14.00,2013-08-30 04:46:00,
2013-08-30 00:48:00,72.0,40.5,29.97,East,90,3.6,5.8,32,0.00,,---,0.00,VWS V14.00,2013-08-30 04:48:00,
2013-08-30 00:50:00,71.8,40.4,29.97,ESE,112,3.6,5.6,32,0.00,,---,0.00,VWS V14.00,2013-08-30 04:50:00,
2013-08-30 00:52:00,71.8,40.4,29.97,ESE,112,2.5,4.7,32,0.00,,---,0.00,VWS V14.00,2013-08-30 04:52:00,
2013-08-30 00:53:00,71.8,40.4,29.97,SE,135,3.6,3.6,32,0.00,,---,0.00,VWS V14.00,2013-08-30 04:53:00,
2013-08-30 00:54:00,71.8,40.4,29.97,ESE,112,2.9,6.0,32,0.00,,---,0.00,VWS V14.00,2013-08-30 04:54:00,
2013-08-30 00:58:00,71.8,40.4,29.97,East,90,2.7,4.3,32,0.00,,---,0.00,VWS V14.00,2013-08-30 04:58:00,
2013-08-30 00:59:00,71.8,40.4,29.97,East,90,1.3,4.9,32,0.00,,---,0.00,VWS V14.00,2013-08-30 04:59:00,
2013-08-30 01:00:00,71.8,40.4,29.97,East,90,2.7,3.6,32,0.00,,---,0.00,VWS V14.00,2013-08-30 05:00:00,
2013-08-30 01:02:00,72.0,40.5,29.97,ESE,112,3.6,3.8,32,0.00,,---,0.00,VWS V14.00,2013-08-30 05:02:00,
2013-08-30 01:05:00,71.8,40.4,29.97,ESE,112,2.7,4.7,32,0.00,,---,0.00,VWS V14.00,2013-08-30 05:05:00,
2013-08-30 01:06:00,71.8,40.4,29.97,East,90,4.3,4.3,32,0.00,,---,0.00,VWS V14.00,2013-08-30 05:06:00,
2013-08-30 01:07:00,71.8,40.4,29.97,ESE,112,3.4,4.3,32,0.00,,---,0.00,VWS V14.00,2013-08-30 05:07:00,
2013-08-30 01:09:00,71.8,40.4,29.97,ESE,112,5.4,5.4,32,0.00,,---,0.00,VWS V14.00,2013-08-30 05:09:00,
2013-08-30 01:11:00,71.8,40.4,29.97,North,0,2.7,3.6,32,0.00,,---,0.00,VWS V14.00,2013-08-30 05:11:00,
2013-08-30 01:13:00,71.8,40.4,29.97,ENE,68,2.0,4.0,32,0.00,,---,0.00,VWS V14.00,2013-08-30 05:13:00,
2013-08-30 01:14:00,71.8,40.4,29.97,East,90,3.4,3.6,32,0.00,,---,0.00,VWS V14.00,2013-08-30 05:14:00,
2013-08-30 01:15:00,71.8,40.4,29.97,ENE,68,0.0,3.4,32,0.00,,---,0.00,VWS V14.00,2013-08-30 05:15:00,
2013-08-30 01:16:00,71.8,40.4,29.97,East,90,2.9,3.8,32,0.00,,---,0.00,VWS V14.00,2013-08-30 05:16:00,
2013-08-30 01:20:00,71.8,40.4,29.97,ESE,112,3.4,3.4,32,0.00,,---,0.00,VWS V14.00,2013-08-30 05:20:00,
2013-08-30 01:21:00,71.8,40.4,29.97,ESE,112,3.8,4.9,32,0.00,,---,0.00,VWS V14.00,2013-08-30 05:21:00,
2013-08-30 01:23:00,71.8,40.4,29.97,ESE,112,3.4,3.4,32,0.00,,---,0.00,VWS V14.00,2013-08-30 05:23:00,
2013-08-30 01:24:00,71.8,40.4,29.97,ESE,112,2.5,3.4,32,0.00,,---,0.00,VWS V14.00,2013-08-30 05:24:00,
2013-08-30 01:28:00,71.8,40.4,29.97,ENE,68,3.6,3.8,32,0.00,,---,0.00,VWS V14.00,2013-08-30 05:28:00,
2013-08-30 01:29:00,71.8,40.4,29.97,ESE,112,0.0,3.6,32,0.00,,---,0.00,VWS V14.00,2013-08-30 05:29:00,
2013-08-30 01:30:00,71.8,40.4,29.97,NE,45,3.4,4.0,32,0.00,,---,0.00,VWS V14.00,2013-08-30 05:30:00,
2013-08-30 01:32:00,71.8,40.4,29.97,ESE,112,0.0,2.9,32,0.00,,---,0.00,VWS V14.00,2013-08-30 05:32:00,
2013-08-30 01:34:00,72.0,40.5,29.97,SE,135,3.4,4.9,32,0.00,,---,0.00,VWS V14.00,2013-08-30 05:34:00,
2013-08-30 01:35:00,72.0,40.5,29.97,ESE,112,4.9,4.9,32,0.00,,---,0.00,VWS V14.00,2013-08-30 05:35:00,
2013-08-30 01:37:00,72.0,40.5,29.97,ESE,112,3.6,3.6,32,0.00,,---,0.00,VWS V14.00,2013-08-30 05:37:00,
2013-08-30 01:38:00,72.0,40.5,29.97,East,90,4.3,4.3,32,0.00,,---,0.00,VWS V14.00,2013-08-30 05:38:00,
2013-08-30 01:39:00,72.0,40.5,29.97,SE,135,2.7,4.3,32,0.00,,---,0.00,VWS V14.00,2013-08-30 05:39:00,
2013-08-30 01:42:00,72.0,40.5,29.97,ESE,112,2.5,3.6,32,0.00,,---,0.00,VWS V14.00,2013-08-30 05:42:00,
2013-08-30 01:44:00,72.0,40.5,29.97,NE,45,3.4,3.4,32,0.00,,---,0.00,VWS V14.00,2013-08-30 05:44:00,
2013-08-30 01:45:00,72.0,40.5,29.97,ESE,112,3.1,3.8,32,0.00,,---,0.00,VWS V14.00,2013-08-30 05:45:00,
2013-08-30 01:47:00,72.0,40.5,29.97,East,90,2.7,3.1,32,0.00,,---,0.00,VWS V14.00,2013-08-30 05:47:00,
2013-08-30 01:48:00,72.0,40.5,29.97,ESE,112,3.4,3.4,32,0.00,,---,0.00,VWS V14.00,2013-08-30 05:48:00,
2013-08-30 01:49:00,72.0,40.5,29.97,ESE,112,4.0,4.0,32,0.00,,---,0.00,VWS V14.00,2013-08-30 05:49:00,
2013-08-30 01:50:00,72.0,40.5,29.97,East,90,3.6,4.0,32,0.00,,---,0.00,VWS V14.00,2013-08-30 05:50:00,
2013-08-30 01:52:00,71.8,40.4,29.97,ESE,112,2.5,2.9,32,0.00,,---,0.00,VWS V14.00,2013-08-30 05:52:00,
2013-08-30 01:53:00,71.8,40.4,29.97,ESE,112,2.5,2.5,32,0.00,,---,0.00,VWS V14.00,2013-08-30 05:53:00,
2013-08-30 01:54:00,71.8,40.4,29.97,East,90,2.7,3.4,32,0.00,,---,0.00,VWS V14.00,2013-08-30 05:54:00,
2013-08-30 01:56:00,71.8,40.4,29.97,ESE,112,2.0,2.9,32,0.00,,---,0.00,VWS V14.00,2013-08-30 05:56:00,
2013-08-30 01:59:00,71.8,40.4,29.97,ENE,68,2.5,2.9,32,0.00,,---,0.00,VWS V14.00,2013-08-30 05:59:00,
2013-08-30 02:01:00,71.8,40.4,29.97,ENE,68,0.0,2.7,32,0.00,,---,0.00,VWS V14.00,2013-08-30 06:01:00,
2013-08-30 02:02:00,71.8,40.4,29.97,ENE,68,3.1,3.6,32,0.00,,---,0.00,VWS V14.00,2013-08-30 06:02:00,
2013-08-30 02:04:00,71.8,40.4,29.97,SE,135,3.6,3.6,32,0.00,,---,0.00,VWS V14.00,2013-08-30 06:04:00,
2013-08-30 02:05:00,71.8,40.4,29.97,NE,45,3.4,4.0,32,0.00,,---,0.00,VWS V14.00,2013-08-30 06:05:00,
2013-08-30 02:07:00,71.8,40.4,29.97,ESE,112,3.4,3.8,32,0.00,,---,0.00,VWS V14.00,2013-08-30 06:07:00,
2013-08-30 02:08:00,72.0,40.5,29.97,SE,135,2.9,4.3,32,0.00,,---,0.00,VWS V14.00,2013-08-30 06:08:00,
2013-08-30 02:11:00,72.0,40.5,29.97,ESE,112,3.4,3.4,32,0.00,,---,0.00,VWS V14.00,2013-08-30 06:11:00,
2013-08-30 02:12:00,72.0,40.5,29.97,East,90,0.0,3.4,32,0.00,,---,0.00,VWS V14.00,2013-08-30 06:12:00,
2013-08-30 02:13:00,71.8,40.4,29.97,East,90,3.4,3.4,32,0.00,,---,0.00,VWS V14.00,2013-08-30 06:13:00,
2013-08-30 02:15:00,71.8,40.4,29.97,ESE,112,3.6,4.0,32,0.00,,---,0.00,VWS V14.00,2013-08-30 06:15:00,
2013-08-30 02:17:00,71.8,40.4,29.97,ESE,112,3.8,4.7,32,0.00,,---,0.00,VWS V14.00,2013-08-30 06:17:00,
2013-08-30 02:18:00,71.8,40.4,29.97,ESE,112,2.2,3.8,32,0.00,,---,0.00,VWS V14.00,2013-08-30 06:18:00,
2013-08-30 02:19:00,71.8,40.4,29.97,ESE,112,2.0,2.5,32,0.00,,---,0.00,VWS V14.00,2013-08-30 06:19:00,
2013-08-30 02:22:00,71.8,40.4,29.97,East,90,4.0,5.4,32,0.00,,---,0.00,VWS V14.00,2013-08-30 06:22:00,
2013-08-30 02:23:00,71.8,40.4,29.97,ESE,112,2.5,4.0,32,0.00,,---,0.00,VWS V14.00,2013-08-30 06:23:00,
2013-08-30 02:24:00,71.8,40.4,29.97,ESE,112,1.6,2.5,32,0.00,,---,0.00,VWS V14.00,2013-08-30 06:24:00,
2013-08-30 02:25:00,71.8,40.4,29.97,SE,135,2.9,2.9,32,0.00,,---,0.00,VWS V14.00,2013-08-30 06:25:00,
2013-08-30 02:26:00,71.8,40.4,29.97,ESE,112,2.7,4.0,32,0.00,,---,0.00,VWS V14.00,2013-08-30 06:26:00,
2013-08-30 02:28:00,71.8,40.4,29.97,SE,135,1.6,2.5,32,0.00,,---,0.00,VWS V14.00,2013-08-30 06:28:00,
2013-08-30 02:30:00,71.8,40.4,29.97,East,90,3.4,4.3,32,0.00,,---,0.00,VWS V14.00,2013-08-30 06:30:00,
2013-08-30 02:31:00,71.8,40.4,29.97,ESE,112,2.7,3.4,32,0.00,,---,0.00,VWS V14.00,2013-08-30 06:31:00,
2013-08-30 02:34:00,71.8,40.4,29.97,ESE,112,3.1,4.0,32,0.00,,---,0.00,VWS V14.00,2013-08-30 06:34:00,
2013-08-30 02:36:00,71.6,40.2,29.97,ESE,112,1.6,3.1,32,0.00,,---,0.00,VWS V14.00,2013-08-30 06:36:00,
2013-08-30 02:37:00,71.6,40.2,29.97,ESE,112,1.6,2.5,32,0.00,,---,0.00,VWS V14.00,2013-08-30 06:37:00,
2013-08-30 02:40:00,71.6,40.2,29.97,ESE,112,3.1,4.3,32,0.00,,---,0.00,VWS V14.00,2013-08-30 06:40:00,
2013-08-30 02:42:00,71.6,40.2,29.97,ESE,112,2.9,4.3,32,0.00,,---,0.00,VWS V14.00,2013-08-30 06:42:00,
2013-08-30 02:43:00,71.6,40.2,29.97,SE,135,3.1,3.1,32,0.00,,---,0.00,VWS V14.00,2013-08-30 06:43:00,
2013-08-30 02:44:00,71.6,40.2,29.97,ESE,112,2.9,3.6,32,0.00,,---,0.00,VWS V14.00,2013-08-30 06:44:00,
2013-08-30 02:48:00,71.6,40.2,29.94,ESE,112,2.9,2.9,32,0.00,,---,0.00,VWS V14.00,2013-08-30 06:48:00,
2013-08-30 02:49:00,71.6,40.2,29.94,ESE,112,1.6,2.9,32,0.00,,---,0.00,VWS V14.00,2013-08-30 06:49:00,
2013-08-30 02:50:00,71.6,40.2,29.94,SE,135,2.5,2.5,32,0.00,,---,0.00,VWS V14.00,2013-08-30 06:50:00,
2013-08-30 02:51:00,71.6,40.2,29.94,SSE,158,3.4,3.4,32,0.00,,---,0.00,VWS V14.00,2013-08-30 06:51:00,
2013-08-30 02:53:00,71.6,40.2,29.94,ESE,112,3.6,3.6,32,0.00,,---,0.00,VWS V14.00,2013-08-30 06:53:00,
2013-08-30 02:55:00,71.4,40.0,29.94,ESE,112,3.6,3.6,32,0.00,,---,0.00,VWS V14.00,2013-08-30 06:55:00,
2013-08-30 02:56:00,71.4,40.0,29.94,ESE,112,3.6,3.6,32,0.00,,---,0.00,VWS V14.00,2013-08-30 06:56:00,
2013-08-30 02:58:00,71.4,40.0,29.94,ESE,112,3.6,3.6,32,0.00,,---,0.00,VWS V14.00,2013-08-30 06:58:00,
2013-08-30 02:59:00,71.4,40.0,29.94,ESE,112,0.0,3.6,32,0.00,,---,0.00,VWS V14.00,2013-08-30 06:59:00,
2013-08-30 03:03:00,71.4,40.0,30.00,SE,135,4.3,4.3,32,0.00,,---,0.00,VWS V14.00,2013-08-30 07:03:00,
2013-08-30 03:04:00,71.4,40.0,30.00,ESE,112,5.6,5.6,32,0.00,,---,0.00,VWS V14.00,2013-08-30 07:04:00,
2013-08-30 03:05:00,71.4,40.0,30.00,SE,135,2.5,5.6,32,0.00,,---,0.00,VWS V14.00,2013-08-30 07:05:00,
2013-08-30 03:06:00,71.4,40.0,30.00,SE,135,4.0,4.3,32,0.00,,---,0.00,VWS V14.00,2013-08-30 07:06:00,
2013-08-30 03:08:00,71.4,40.0,30.00,ESE,112,2.0,3.6,32,0.00,,---,0.00,VWS V14.00,2013-08-30 07:08:00,
2013-08-30 03:10:00,71.4,40.0,30.00,ESE,112,2.0,2.0,32,0.00,,---,0.00,VWS V14.00,2013-08-30 07:10:00,
2013-08-30 03:11:00,71.4,40.0,30.00,ESE,112,0.0,2.0,32,0.00,,---,0.00,VWS V14.00,2013-08-30 07:11:00,
2013-08-30 03:12:00,71.4,40.0,30.00,ESE,112,0.0,0.0,32,0.00,,---,0.00,VWS V14.00,2013-08-30 07:12:00,
2013-08-30 03:13:00,71.4,40.0,30.00,ESE,112,0.0,0.0,32,0.00,,---,0.00,VWS V14.00,2013-08-30 07:13:00,
2013-08-30 03:16:00,71.4,40.0,30.00,ESE,112,0.0,0.0,32,0.00,,---,0.00,VWS V14.00,2013-08-30 07:16:00,
2013-08-30 03:17:00,71.4,40.0,29.97,SE,135,0.0,0.0,32,0.00,,---,0.00,VWS V14.00,2013-08-30 07:17:00,
2013-08-30 03:18:00,71.4,40.0,29.97,SE,135,0.0,0.0,32,0.00,,---,0.00,VWS V14.00,2013-08-30 07:18:00,
2013-08-30 03:19:00,71.4,40.0,29.97,SE,135,0.0,0.0,32,0.00,,---,0.00,VWS V14.00,2013-08-30 07:19:00,
2013-08-30 03:23:00,71.4,40.0,29.97,SE,135,0.0,0.0,32,0.00,,---,0.00,VWS V14.00,2013-08-30 07:23:00,
2013-08-30 03:24:00,71.4,40.0,29.97,SE,135,0.0,0.0,32,0.00,,---,0.00,VWS V14.00,2013-08-30 07:24:00,
2013-08-30 03:25:00,71.4,40.0,29.97,SE,135,0.0,0.0,32,0.00,,---,0.00,VWS V14.00,2013-08-30 07:25:00,
2013-08-30 03:29:00,71.4,40.0,29.97,SE,135,0.0,0.0,32,0.00,,---,0.00,VWS V14.00,2013-08-30 07:29:00,
2013-08-30 03:31:00,71.4,40.0,29.97,ESE,112,0.0,0.0,32,0.00,,---,0.00,VWS V14.00,2013-08-30 07:31:00,
2013-08-30 03:33:00,71.4,40.0,29.94,SE,135,3.4,3.4,32,0.00,,---,0.00,VWS V14.00,2013-08-30 07:33:00,
2013-08-30 03:35:00,71.4,40.0,29.94,SE,135,0.0,1.3,32,0.00,,---,0.00,VWS V14.00,2013-08-30 07:35:00,
2013-08-30 03:37:00,71.4,40.0,29.94,East,90,0.0,0.0,32,0.00,,---,0.00,VWS V14.00,2013-08-30 07:37:00,
2013-08-30 03:38:00,71.6,40.2,29.94,ESE,112,0.0,0.0,32,0.00,,---,0.00,VWS V14.00,2013-08-30 07:38:00,
2013-08-30 03:41:00,71.6,40.2,29.94,ENE,68,0.0,0.0,32,0.00,,---,0.00,VWS V14.00,2013-08-30 07:41:00,
2013-08-30 03:42:00,71.6,40.2,29.94,ENE,68,0.0,0.0,32,0.00,,---,0.00,VWS V14.00,2013-08-30 07:42:00,
2013-08-30 03:43:00,71.6,40.2,29.94,ENE,68,0.0,0.0,32,0.00,,---,0.00,VWS V14.00,2013-08-30 07:43:00,
2013-08-30 03:45:00,71.6,40.2,29.94,East,90,0.0,0.0,32,0.00,,---,0.00,VWS V14.00,2013-08-30 07:45:00,
2013-08-30 03:49:00,71.6,40.2,29.97,East,90,0.0,0.0,32,0.00,,---,0.00,VWS V14.00,2013-08-30 07:49:00,
2013-08-30 03:50:00,71.6,40.2,29.97,East,90,0.0,0.0,32,0.00,,---,0.00,VWS V14.00,2013-08-30 07:50:00,
2013-08-30 03:52:00,71.6,40.2,29.97,SE,135,1.6,3.8,32,0.00,,---,0.00,VWS V14.00,2013-08-30 07:52:00,
2013-08-30 03:54:00,71.6,40.2,29.97,ESE,112,2.5,4.0,32,0.00,,---,0.00,VWS V14.00,2013-08-30 07:54:00,
2013-08-30 03:55:00,71.6,40.2,29.97,ESE,112,2.5,3.4,32,0.00,,---,0.00,VWS V14.00,2013-08-30 07:55:00,
2013-08-30 03:56:00,71.6,40.2,29.97,ESE,112,1.1,3.1,32,0.00,,---,0.00,VWS V14.00,2013-08-30 07:56:00,
2013-08-30 03:58:00,71.6,40.2,29.97,ESE,112,3.6,3.6,32,0.00,,---,0.00,VWS V14.00,2013-08-30 07:58:00,
2013-08-30 04:03:00,71.6,40.2,29.97,ESE,112,0.0,0.0,32,0.00,,---,0.00,VWS V14.00,2013-08-30 08:03:00,
2013-08-30 04:05:00,71.6,40.2,29.97,SE,135,2.7,3.1,32,0.00,,---,0.00,VWS V14.00,2013-08-30 08:05:00,
2013-08-30 04:06:00,71.6,40.2,29.97,SE,135,1.6,3.1,32,0.00,,---,0.00,VWS V14.00,2013-08-30 08:06:00,
2013-08-30 04:08:00,71.6,40.2,29.97,ESE,112,2.5,3.6,32,0.00,,---,0.00,VWS V14.00,2013-08-30 08:08:00,
2013-08-30 04:09:00,71.6,40.2,29.97,ESE,112,0.0,2.5,32,0.00,,---,0.00,VWS V14.00,2013-08-30 08:09:00,
2013-08-30 04:11:00,71.6,40.2,29.97,ESE,112,0.0,0.0,32,0.00,,---,0.00,VWS V14.00,2013-08-30 08:11:00,
2013-08-30 04:12:00,71.6,40.2,29.97,ESE,112,0.0,0.0,32,0.00,,---,0.00,VWS V14.00,2013-08-30 08:12:00,
2013-08-30 04:14:00,71.6,40.2,29.97,East,90,2.0,2.0,32,0.00,,---,0.00,VWS V14.00,2013-08-30 08:14:00,
2013-08-30 04:16:00,71.6,40.2,29.97,East,90,0.9,0.9,32,0.00,,---,0.00,VWS V14.00,2013-08-30 08:16:00,
2013-08-30 04:17:00,71.6,40.2,29.97,East,90,0.0,0.9,32,0.00,,---,0.00,VWS V14.00,2013-08-30 08:17:00,
2013-08-30 04:18:00,71.6,40.2,29.97,East,90,0.0,0.0,32,0.00,,---,0.00,VWS V14.00,2013-08-30 08:18:00,
2013-08-30 04:21:00,71.6,40.2,29.97,East,90,0.0,0.0,32,0.00,,---,0.00,VWS V14.00,2013-08-30 08:21:00,
2013-08-30 04:22:00,71.6,40.2,29.97,East,90,0.0,0.0,32,0.00,,---,0.00,VWS V14.00,2013-08-30 08:22:00,
2013-08-30 04:24:00,71.8,40.4,29.97,East,90,0.0,0.0,32,0.00,,---,0.00,VWS V14.00,2013-08-30 08:24:00,
2013-08-30 04:27:00,71.6,40.2,29.97,East,90,0.0,0.0,32,0.00,,---,0.00,VWS V14.00,2013-08-30 08:27:00,
2013-08-30 04:28:00,71.6,40.2,29.97,East,90,0.0,0.0,32,0.00,,---,0.00,VWS V14.00,2013-08-30 08:28:00,
2013-08-30 04:31:00,71.6,40.2,29.97,East,90,0.0,0.0,32,0.00,,---,0.00,VWS V14.00,2013-08-30 08:31:00,
2013-08-30 04:32:00,71.6,40.2,29.97,East,90,0.0,0.0,32,0.00,,---,0.00,VWS V14.00,2013-08-30 08:32:00,
2013-08-30 04:33:00,71.6,40.2,29.97,East,90,0.0,0.0,32,0.00,,---,0.00,VWS V14.00,2013-08-30 08:33:00,
2013-08-30 04:34:00,71.6,40.2,29.97,East,90,0.0,0.0,32,0.00,,---,0.00,VWS V14.00,2013-08-30 08:34:00,
2013-08-30 04:37:00,71.6,40.2,29.97,East,90,0.0,0.0,32,0.00,,---,0.00,VWS V14.00,2013-08-30 08:37:00,
2013-08-30 04:38:00,71.6,40.2,29.97,East,90,0.0,0.0,32,0.00,,---,0.00,VWS V14.00,2013-08-30 08:38:00,
2013-08-30 04:41:00,71.6,40.2,29.97,East,90,0.0,0.0,32,0.00,,---,0.00,VWS V14.00,2013-08-30 08:41:00,
2013-08-30 04:42:00,71.6,40.2,29.97,East,90,0.0,0.0,32,0.00,,---,0.00,VWS V14.00,2013-08-30 08:42:00,
2013-08-30 04:43:00,71.6,40.2,29.97,East,90,0.0,0.0,32,0.00,,---,0.00,VWS V14.00,2013-08-30 08:43:00,
2013-08-30 04:47:00,71.6,40.2,29.97,East,90,0.0,0.0,32,0.00,,---,0.00,VWS V14.00,2013-08-30 08:47:00,
2013-08-30 04:48:00,71.6,40.2,29.97,East,90,0.0,0.0,32,0.00,,---,0.00,VWS V14.00,2013-08-30 08:48:00,
2013-08-30 04:49:00,71.6,40.2,29.97,East,90,0.0,0.0,32,0.00,,---,0.00,VWS V14.00,2013-08-30 08:49:00,
2013-08-30 04:50:00,71.6,40.2,29.97,East,90,0.0,0.0,32,0.00,,---,0.00,VWS V14.00,2013-08-30 08:50:00,
2013-08-30 04:52:00,71.6,40.2,29.97,East,90,0.0,0.0,32,0.00,,---,0.00,VWS V14.00,2013-08-30 08:52:00,
2013-08-30 04:55:00,71.6,40.2,29.97,East,90,0.0,0.0,32,0.00,,---,0.00,VWS V14.00,2013-08-30 08:55:00,
2013-08-30 04:57:00,71.6,40.2,29.97,East,90,0.0,0.0,32,0.00,,---,0.00,VWS V14.00,2013-08-30 08:57:00,
2013-08-30 04:58:00,71.6,40.2,29.97,East,90,0.0,0.0,32,0.00,,---,0.00,VWS V14.00,2013-08-30 08:58:00,
2013-08-30 05:00:00,71.6,40.2,29.97,East,90,0.0,0.0,32,0.00,,---,0.00,VWS V14.00,2013-08-30 09:00:00,
2013-08-30 05:01:00,71.6,40.2,29.97,East,90,0.0,0.0,32,0.00,,---,0.00,VWS V14.00,2013-08-30 09:01:00,
2013-08-30 05:02:00,71.6,40.2,29.97,ESE,112,0.0,2.5,32,0.00,,---,0.00,VWS V14.00,2013-08-30 09:02:00,
2013-08-30 05:03:00,71.6,40.2,29.97,ESE,112,0.0,2.7,32,0.00,,---,0.00,VWS V14.00,2013-08-30 09:03:00,
2013-08-30 05:07:00,71.6,40.2,29.97,ESE,112,0.0,0.0,32,0.00,,---,0.00,VWS V14.00,2013-08-30 09:07:00,
2013-08-30 05:08:00,71.6,40.2,29.97,ESE,112,0.0,0.0,32,0.00,,---,0.00,VWS V14.00,2013-08-30 09:08:00,
2013-08-30 05:09:00,71.6,40.2,29.97,ESE,112,0.0,0.0,32,0.00,,---,0.00,VWS V14.00,2013-08-30 09:09:00,
2013-08-30 05:10:00,71.6,40.2,29.97,ESE,112,0.0,0.0,32,0.00,,---,0.00,VWS V14.00,2013-08-30 09:10:00,
2013-08-30 05:11:00,71.6,40.2,29.97,ESE,112,0.0,0.0,32,0.00,,---,0.00,VWS V14.00,2013-08-30 09:11:00,
2013-08-30 05:13:00,71.6,40.2,29.97,ESE,112,0.0,0.0,32,0.00,,---,0.00,VWS V14.00,2013-08-30 09:13:00,
2013-08-30 05:14:00,71.6,40.2,29.97,ESE,112,0.0,0.0,32,0.00,,---,0.00,VWS V14.00,2013-08-30 09:14:00,
2013-08-30 05:16:00,71.6,40.2,29.97,ESE,112,0.0,0.0,32,0.00,,---,0.00,VWS V14.00,2013-08-30 09:16:00,
2013-08-30 05:18:00,71.6,40.2,29.94,ESE,112,0.0,0.0,32,0.00,,---,0.00,VWS V14.00,2013-08-30 09:18:00,
2013-08-30 05:19:00,71.6,40.2,29.94,ESE,112,0.0,0.0,32,0.00,,---,0.00,VWS V14.00,2013-08-30 09:19:00,
2013-08-30 05:20:00,71.6,40.2,29.94,ESE,112,0.0,0.0,32,0.00,,---,0.00,VWS V14.00,2013-08-30 09:20:00,
2013-08-30 05:21:00,71.6,40.2,29.94,ESE,112,0.0,0.0,32,0.00,,---,0.00,VWS V14.00,2013-08-30 09:21:00,
2013-08-30 05:22:00,71.6,40.2,29.94,ESE,112,0.0,0.0,32,0.00,,---,0.00,VWS V14.00,2013-08-30 09:22:00,
2013-08-30 05:23:00,71.6,40.2,29.94,ESE,112,0.0,0.0,32,0.00,,---,0.00,VWS V14.00,2013-08-30 09:23:00,
2013-08-30 05:26:00,71.6,40.2,29.94,ESE,112,0.0,0.0,32,0.00,,---,0.00,VWS V14.00,2013-08-30 09:26:00,
2013-08-30 05:27:00,71.6,40.2,29.94,ESE,112,0.0,0.0,32,0.00,,---,0.00,VWS V14.00,2013-08-30 09:27:00,
2013-08-30 05:29:00,71.8,40.4,29.94,ESE,112,0.0,0.0,32,0.00,,---,0.00,VWS V14.00,2013-08-30 09:29:00,
2013-08-30 05:31:00,71.8,40.4,29.94,ESE,112,0.0,0.0,32,0.00,,---,0.00,VWS V14.00,2013-08-30 09:31:00,
2013-08-30 05:35:00,71.8,40.4,29.94,ESE,112,0.0,0.0,32,0.00,,---,0.00,VWS V14.00,2013-08-30 09:35:00,
2013-08-30 05:37:00,71.8,40.4,29.94,ESE,112,0.0,0.0,32,0.00,,---,0.00,VWS V14.00,2013-08-30 09:37:00,
2013-08-30 05:39:00,71.8,40.4,29.94,ESE,112,0.0,0.0,32,0.00,,---,0.00,VWS V14.00,2013-08-30 09:39:00,
2013-08-30 05:40:00,71.8,40.4,29.94,ESE,112,0.0,0.0,32,0.00,,---,0.00,VWS V14.00,2013-08-30 09:40:00,
2013-08-30 05:42:00,71.8,40.4,29.94,ESE,112,0.0,0.0,32,0.00,,---,0.00,VWS V14.00,2013-08-30 09:42:00,
2013-08-30 05:45:00,71.8,40.4,29.94,ESE,112,0.0,0.0,32,0.00,,---,0.00,VWS V14.00,2013-08-30 09:45:00,
2013-08-30 05:46:00,71.8,40.4,29.94,ESE,112,0.0,0.0,32,0.00,,---,0.00,VWS V14.00,2013-08-30 09:46:00,
2013-08-30 05:48:00,71.8,40.4,29.97,ESE,112,0.0,0.0,32,0.00,,---,0.00,VWS V14.00,2013-08-30 09:48:00,
2013-08-30 05:50:00,71.8,40.4,29.97,WSW,248,0.0,0.0,32,0.00,,---,0.00,VWS V14.00,2013-08-30 09:50:00,
2013-08-30 05:51:00,71.8,40.4,29.97,WSW,248,0.0,0.0,32,0.00,,---,0.00,VWS V14.00,2013-08-30 09:51:00,
2013-08-30 05:53:00,71.8,40.4,29.97,West,270,0.0,0.0,32,0.00,,---,0.00,VWS V14.00,2013-08-30 09:53:00,
2013-08-30 05:55:00,71.8,40.4,29.97,West,270,0.0,0.0,32,0.00,,---,0.00,VWS V14.00,2013-08-30 09:55:00,
2013-08-30 05:57:00,71.8,40.4,29.97,West,270,0.0,0.0,32,0.00,,---,0.00,VWS V14.00,2013-08-30 09:57:00,
2013-08-30 05:59:00,71.8,40.4,29.97,WNW,292,0.0,0.0,32,0.00,,---,0.00,VWS V14.00,2013-08-30 09:59:00,
2013-08-30 06:00:00,71.8,40.4,29.97,NW,315,0.0,0.0,32,0.00,,---,0.00,VWS V14.00,2013-08-30 10:00:00,
2013-08-30 06:02:00,71.8,40.4,29.97,West,270,0.0,0.0,32,0.00,,---,0.00,VWS V14.00,2013-08-30 10:02:00,
2013-08-30 06:04:00,71.8,40.4,29.97,West,270,0.0,2.9,32,0.00,,---,0.00,VWS V14.00,2013-08-30 10:04:00,
2013-08-30 06:05:00,71.8,40.4,29.97,West,270,0.0,0.0,32,0.00,,---,0.00,VWS V14.00,2013-08-30 10:05:00,
2013-08-30 06:06:00,71.8,40.4,29.97,West,270,0.0,0.0,32,0.00,,---,0.00,VWS V14.00,2013-08-30 10:06:00,
2013-08-30 06:07:00,71.6,40.2,29.97,WNW,292,0.0,0.0,32,0.00,,---,0.00,VWS V14.00,2013-08-30 10:07:00,
2013-08-30 06:11:00,71.6,40.2,29.97,West,270,0.0,0.0,32,0.00,,---,0.00,VWS V14.00,2013-08-30 10:11:00,
2013-08-30 06:12:00,71.8,40.4,29.97,West,270,0.0,0.0,32,0.00,,---,0.00,VWS V14.00,2013-08-30 10:12:00,
2013-08-30 06:16:00,71.6,40.2,29.97,WNW,292,0.0,0.0,32,0.00,,---,0.00,VWS V14.00,2013-08-30 10:16:00,
2013-08-30 06:17:00,71.6,40.2,29.97,WNW,292,0.0,0.0,32,0.00,,---,0.00,VWS V14.00,2013-08-30 10:17:00,
2013-08-30 06:18:00,71.6,40.2,29.97,WNW,292,0.0,0.0,32,0.00,,---,0.00,VWS V14.00,2013-08-30 10:18:00,
2013-08-30 06:19:00,71.6,40.2,29.97,WNW,292,0.0,0.0,32,0.00,,---,0.00,VWS V14.00,2013-08-30 10:19:00,
2013-08-30 06:21:00,71.6,40.2,29.97,WNW,292,0.0,0.0,32,0.00,,---,0.00,VWS V14.00,2013-08-30 10:21:00,
2013-08-30 06:23:00,71.6,40.2,29.97,WNW,292,0.0,0.0,32,0.00,,---,0.00,VWS V14.00,2013-08-30 10:23:00,
2013-08-30 06:27:00,71.6,40.2,29.97,WNW,292,0.0,0.0,32,0.00,,---,0.00,VWS V14.00,2013-08-30 10:27:00,
2013-08-30 06:28:00,71.6,40.2,29.97,WNW,292,0.0,0.0,32,0.00,,---,0.00,VWS V14.00,2013-08-30 10:28:00,
2013-08-30 06:30:00,71.6,40.2,29.97,WNW,292,0.0,0.0,32,0.00,,---,0.00,VWS V14.00,2013-08-30 10:30:00,
2013-08-30 06:31:00,71.6,40.2,29.97,West,270,0.0,0.0,32,0.00,,---,0.00,VWS V14.00,2013-08-30 10:31:00,
2013-08-30 06:33:00,71.6,40.2,29.97,West,270,0.0,0.0,32,0.00,,---,0.00,VWS V14.00,2013-08-30 10:33:00,
2013-08-30 06:34:00,71.6,40.2,29.97,WSW,248,0.0,0.0,32,0.00,,---,0.00,VWS V14.00,2013-08-30 10:34:00,
2013-08-30 06:38:00,71.6,40.2,29.97,WSW,248,0.0,0.0,32,0.00,,---,0.00,VWS V14.00,2013-08-30 10:38:00,
2013-08-30 06:39:00,71.6,40.2,29.97,WSW,248,0.0,0.0,32,0.00,,---,0.00,VWS V14.00,2013-08-30 10:39:00,
2013-08-30 06:41:00,71.6,40.2,29.97,WSW,248,0.0,0.0,32,0.00,,---,0.00,VWS V14.00,2013-08-30 10:41:00,
2013-08-30 06:42:00,71.6,40.2,29.97,WSW,248,0.0,0.0,32,0.00,,---,0.00,VWS V14.00,2013-08-30 10:42:00,
2013-08-30 06:43:00,71.6,40.2,29.97,WSW,248,0.0,0.0,32,0.00,,---,0.00,VWS V14.00,2013-08-30 10:43:00,
2013-08-30 06:46:00,71.6,40.2,29.97,West,270,0.0,0.0,32,0.00,,---,0.00,VWS V14.00,2013-08-30 10:46:00,
2013-08-30 06:47:00,71.6,40.2,29.97,West,270,0.0,0.0,32,0.00,,---,0.00,VWS V14.00,2013-08-30 10:47:00,
2013-08-30 06:48:00,71.6,40.2,29.97,West,270,0.0,0.0,32,0.00,,---,0.00,VWS V14.00,2013-08-30 10:48:00,
2013-08-30 06:53:00,71.6,40.2,29.97,WSW,248,2.9,3.1,32,0.00,,---,0.00,VWS V14.00,2013-08-30 10:53:00,
2013-08-30 06:54:00,71.6,40.2,29.97,WSW,248,2.5,2.9,32,0.00,,---,0.00,VWS V14.00,2013-08-30 10:54:00,
2013-08-30 06:55:00,71.6,40.2,29.97,WSW,248,0.0,2.5,32,0.00,,---,0.00,VWS V14.00,2013-08-30 10:55:00,
2013-08-30 07:00:00,71.6,40.2,29.97,WNW,292,0.9,2.5,32,0.00,,---,0.00,VWS V14.00,2013-08-30 11:00:00,
2013-08-30 07:02:00,71.6,40.2,29.97,West,270,1.3,1.6,32,0.00,,---,0.00,VWS V14.00,2013-08-30 11:02:00,
2013-08-30 07:05:00,71.6,40.2,29.97,West,270,1.3,2.9,32,0.00,,---,0.00,VWS V14.00,2013-08-30 11:05:00,
2013-08-30 07:08:00,71.6,40.2,29.97,West,270,0.0,0.0,32,0.00,,---,0.00,VWS V14.00,2013-08-30 11:08:00,
2013-08-30 07:09:00,71.6,40.2,29.97,West,270,0.0,0.0,32,0.00,,---,0.00,VWS V14.00,2013-08-30 11:09:00,
2013-08-30 07:10:00,71.6,40.2,29.97,West,270,0.0,0.0,32,0.00,,---,0.00,VWS V14.00,2013-08-30 11:10:00,
2013-08-30 07:11:00,71.6,40.2,29.97,WSW,248,0.0,0.0,32,0.00,,---,0.00,VWS V14.00,2013-08-30 11:11:00,
2013-08-30 07:15:00,71.6,40.2,29.97,West,270,0.0,0.0,32,0.00,,---,0.00,VWS V14.00,2013-08-30 11:15:00,
2013-08-30 07:17:00,71.8,40.4,29.97,West,270,0.0,0.0,32,0.00,,---,0.00,VWS V14.00,2013-08-30 11:17:00,
2013-08-30 07:18:00,71.8,40.4,29.97,West,270,0.0,0.0,32,0.00,,---,0.00,VWS V14.00,2013-08-30 11:18:00,
2013-08-30 07:20:00,71.8,40.4,29.97,WSW,248,0.0,2.9,32,0.00,,---,0.00,VWS V14.00,2013-08-30 11:20:00,
2013-08-30 07:21:00,71.8,40.4,29.97,WSW,248,2.7,2.7,32,0.00,,---,0.00,VWS V14.00,2013-08-30 11:21:00,
2013-08-30 07:23:00,71.8,40.4,29.97,WSW,248,0.9,3.1,32,0.00,,---,0.00,VWS V14.00,2013-08-30 11:23:00,
2013-08-30 07:27:00,71.8,40.4,29.97,WSW,248,0.9,2.5,32,0.00,,---,0.00,VWS V14.00,2013-08-30 11:27:00,
2013-08-30 07:28:00,71.8,40.4,29.97,WSW,248,0.0,0.9,32,0.00,,---,0.00,VWS V14.00,2013-08-30 11:28:00,
2013-08-30 07:32:00,72.0,40.5,29.97,WSW,248,0.0,0.0,32,0.00,,---,0.00,VWS V14.00,2013-08-30 11:32:00,
2013-08-30 07:33:00,72.0,40.5,29.97,WSW,248,0.0,0.0,32,0.00,,---,0.00,VWS V14.00,2013-08-30 11:33:00,
2013-08-30 07:34:00,72.0,40.5,29.97,WSW,248,0.0,0.0,32,0.00,,---,0.00,VWS V14.00,2013-08-30 11:34:00,
2013-08-30 07:37:00,72.0,40.5,29.97,WSW,248,0.0,0.0,32,0.00,,---,0.00,VWS V14.00,2013-08-30 11:37:00,
2013-08-30 07:39:00,72.0,40.5,29.97,WSW,248,0.0,1.1,32,0.00,,---,0.00,VWS V14.00,2013-08-30 11:39:00,
2013-08-30 07:41:00,72.1,40.7,29.97,WSW,248,0.0,0.0,32,0.00,,---,0.00,VWS V14.00,2013-08-30 11:41:00,
2013-08-30 07:42:00,72.1,40.7,29.97,WSW,248,0.0,0.0,32,0.00,,---,0.00,VWS V14.00,2013-08-30 11:42:00,
2013-08-30 07:45:00,72.1,40.7,29.97,WSW,248,0.0,0.0,32,0.00,,---,0.00,VWS V14.00,2013-08-30 11:45:00,
2013-08-30 07:47:00,72.1,39.9,29.97,WSW,248,0.0,0.0,31,0.00,,---,0.00,VWS V14.00,2013-08-30 11:47:00,
2013-08-30 07:49:00,72.1,39.9,29.97,WSW,248,0.0,1.3,31,0.00,,---,0.00,VWS V14.00,2013-08-30 11:49:00,
2013-08-30 07:51:00,72.3,40.0,29.97,WSW,248,0.0,0.0,31,0.00,,---,0.00,VWS V14.00,2013-08-30 11:51:00,
2013-08-30 07:53:00,72.3,40.0,29.97,WSW,248,0.0,0.0,31,0.00,,---,0.00,VWS V14.00,2013-08-30 11:53:00,
2013-08-30 07:55:00,72.3,40.0,29.97,WSW,248,0.0,2.0,31,0.00,,---,0.00,VWS V14.00,2013-08-30 11:55:00,
2013-08-30 07:58:00,72.3,40.0,29.97,WSW,248,1.6,1.6,31,0.00,,---,0.00,VWS V14.00,2013-08-30 11:58:00,
2013-08-30 07:59:00,72.3,40.0,29.97,WSW,248,1.1,2.9,31,0.00,,---,0.00,VWS V14.00,2013-08-30 11:59:00,
2013-08-30 08:01:00,72.3,40.0,29.97,WSW,248,0.0,0.0,31,0.00,,---,0.00,VWS V14.00,2013-08-30 12:01:00,
2013-08-30 08:02:00,72.3,40.0,30.00,WSW,248,0.0,0.0,31,0.00,,---,0.00,VWS V14.00,2013-08-30 12:02:00,
2013-08-30 08:04:00,72.3,40.0,30.00,WSW,248,0.0,0.0,31,0.00,,---,0.00,VWS V14.00,2013-08-30 12:04:00,
2013-08-30 08:07:00,72.5,40.2,30.00,WSW,248,0.0,0.0,31,0.00,,---,0.00,VWS V14.00,2013-08-30 12:07:00,
2013-08-30 08:08:00,72.5,40.2,30.00,WSW,248,0.0,0.0,31,0.00,,---,0.00,VWS V14.00,2013-08-30 12:08:00,
2013-08-30 08:09:00,72.7,40.3,30.00,WSW,248,2.5,2.5,31,0.00,,---,0.00,VWS V14.00,2013-08-30 12:09:00,
2013-08-30 08:12:00,72.7,40.3,30.00,WSW,248,0.0,0.0,31,0.00,,---,0.00,VWS V14.00,2013-08-30 12:12:00,
2013-08-30 08:13:00,72.9,40.5,30.00,WSW,248,0.0,0.0,31,0.00,,---,0.00,VWS V14.00,2013-08-30 12:13:00,
2013-08-30 08:14:00,72.9,40.5,30.00,WSW,248,0.0,0.0,31,0.00,,---,0.00,VWS V14.00,2013-08-30 12:14:00,
2013-08-30 08:15:00,73.0,40.6,30.00,WSW,248,0.0,0.0,31,0.00,,---,0.00,VWS V14.00,2013-08-30 12:15:00,
2013-08-30 08:17:00,73.2,40.8,30.00,WSW,248,0.0,0.0,31,0.00,,---,0.00,VWS V14.00,2013-08-30 12:17:00,
2013-08-30 08:19:00,73.4,41.0,30.00,WSW,248,0.0,0.0,31,0.00,,---,0.00,VWS V14.00,2013-08-30 12:19:00,
2013-08-30 08:20:00,73.4,41.0,30.00,West,270,0.0,0.0,31,0.00,,---,0.00,VWS V14.00,2013-08-30 12:20:00,
2013-08-30 08:22:00,73.9,41.4,30.00,WSW,248,0.0,0.0,31,0.00,,---,0.00,VWS V14.00,2013-08-30 12:22:00,
2013-08-30 08:24:00,74.1,41.6,30.00,WSW,248,0.0,0.0,31,0.00,,---,0.00,VWS V14.00,2013-08-30 12:24:00,
2013-08-30 08:25:00,74.1,39.9,30.00,West,270,0.0,0.0,29,0.00,,---,0.00,VWS V14.00,2013-08-30 12:25:00,
2013-08-30 08:27:00,74.1,39.0,30.00,West,270,0.0,0.0,28,0.00,,---,0.00,VWS V14.00,2013-08-30 12:27:00,
2013-08-30 08:29:00,73.9,36.9,30.00,West,270,0.0,0.0,26,0.00,,---,0.00,VWS V14.00,2013-08-30 12:29:00,
2013-08-30 08:30:00,73.9,37.9,30.00,West,270,0.0,0.0,27,0.00,,---,0.00,VWS V14.00,2013-08-30 12:30:00,
2013-08-30 08:31:00,73.9,38.8,30.00,South,180,0.0,0.0,28,0.00,,---,0.00,VWS V14.00,2013-08-30 12:31:00,
2013-08-30 08:32:00,73.9,38.8,29.97,WSW,248,0.0,0.0,28,0.00,,---,0.00,VWS V14.00,2013-08-30 12:32:00,
2013-08-30 08:36:00,73.8,38.7,29.97,WSW,248,0.0,0.0,28,0.00,,---,0.00,VWS V14.00,2013-08-30 12:36:00,
2013-08-30 08:37:00,73.8,37.7,29.97,WNW,292,2.7,2.7,27,0.00,,---,0.00,VWS V14.00,2013-08-30 12:37:00,
2013-08-30 08:40:00,73.8,38.7,29.97,West,270,0.0,3.8,28,0.00,,---,0.00,VWS V14.00,2013-08-30 12:40:00,
2013-08-30 08:42:00,73.9,41.4,29.97,SSW,202,0.0,0.0,31,0.00,,---,0.00,VWS V14.00,2013-08-30 12:42:00,
2013-08-30 08:43:00,73.9,40.6,29.97,SSW,202,1.3,2.2,30,0.00,,---,0.00,VWS V14.00,2013-08-30 12:43:00,
2013-08-30 08:46:00,74.3,41.7,29.97,WSW,248,0.0,0.0,31,0.00,,---,0.00,VWS V14.00,2013-08-30 12:46:00,
2013-08-30 08:48:00,74.3,40.0,30.00,WSW,248,2.2,2.9,29,0.00,,---,0.00,VWS V14.00,2013-08-30 12:48:00,
2013-08-30 08:49:00,74.3,40.0,30.00,SSW,202,0.0,2.5,29,0.00,,---,0.00,VWS V14.00,2013-08-30 12:49:00,
2013-08-30 08:50:00,74.3,40.0,30.00,WSW,248,2.9,4.0,29,0.00,,---,0.00,VWS V14.00,2013-08-30 12:50:00,
2013-08-30 08:51:00,74.3,40.0,30.00,WSW,248,2.0,3.6,29,0.00,,---,0.00,VWS V14.00,2013-08-30 12:51:00,
2013-08-30 08:54:00,74.5,41.0,30.00,West,270,2.5,3.4,30,0.00,,---,0.00,VWS V14.00,2013-08-30 12:54:00,
2013-08-30 08:57:00,74.7,42.0,30.00,West,270,2.9,3.4,31,0.00,,---,0.00,VWS V14.00,2013-08-30 12:57:00,
2013-08-30 08:58:00,74.8,41.4,30.00,WNW,292,2.5,2.9,30,0.00,,---,0.00,VWS V14.00,2013-08-30 12:58:00,
2013-08-30 08:59:00,74.8,41.4,30.00,WNW,292,0.0,2.5,30,0.00,,---,0.00,VWS V14.00,2013-08-30 12:59:00,
2013-08-30 09:01:00,75.4,41.8,30.00,West,270,0.0,1.3,30,0.00,,---,0.00,VWS V14.00,2013-08-30 13:01:00,
2013-08-30 09:02:00,76.3,42.6,29.97,WSW,248,2.2,3.1,30,0.00,,---,0.00,VWS V14.00,2013-08-30 13:02:00,
2013-08-30 09:03:00,76.5,42.8,29.97,West,270,2.5,2.5,30,0.00,,---,0.00,VWS V14.00,2013-08-30 13:03:00,
2013-08-30 09:04:00,76.8,43.1,29.97,WSW,248,2.5,3.1,30,0.00,,---,0.00,VWS V14.00,2013-08-30 13:04:00,
2013-08-30 09:05:00,76.8,43.1,29.97,SSW,202,2.7,3.6,30,0.00,,---,0.00,VWS V14.00,2013-08-30 13:05:00,
2013-08-30 09:08:00,77.7,39.1,29.97,NW,315,3.1,3.1,25,0.00,,---,0.00,VWS V14.00,2013-08-30 13:08:00,
2013-08-30 09:09:00,77.9,39.3,29.97,WNW,292,3.4,5.6,25,0.00,,---,0.00,VWS V14.00,2013-08-30 13:09:00,
2013-08-30 09:10:00,77.9,39.3,29.97,WSW,248,3.4,3.8,25,0.00,,---,0.00,VWS V14.00,2013-08-30 13:10:00,
2013-08-30 09:13:00,77.9,39.3,29.97,WNW,292,0.9,4.0,25,0.00,,---,0.00,VWS V14.00,2013-08-30 13:13:00,
2013-08-30 09:15:00,78.1,40.4,29.97,WSW,248,2.0,2.2,26,0.00,,---,0.00,VWS V14.00,2013-08-30 13:15:00,
2013-08-30 09:16:00,78.4,40.8,29.97,WSW,248,1.3,3.4,26,0.00,,---,0.00,VWS V14.00,2013-08-30 13:16:00,
2013-08-30 09:17:00,78.6,40.9,29.97,WSW,248,0.0,1.3,26,0.00,,---,0.00,VWS V14.00,2013-08-30 13:17:00,
2013-08-30 09:19:00,79.2,40.3,29.97,WSW,248,0.0,0.0,25,0.00,,---,0.00,VWS V14.00,2013-08-30 13:19:00,
2013-08-30 09:20:00,79.5,41.7,29.97,WSW,248,3.1,3.6,26,0.00,,---,0.00,VWS V14.00,2013-08-30 13:20:00,
2013-08-30 09:21:00,79.5,40.7,29.97,West,270,1.1,3.8,25,0.00,,---,0.00,VWS V14.00,2013-08-30 13:21:00,
2013-08-30 09:22:00,79.7,40.8,29.97,WSW,248,3.6,5.8,25,0.00,,---,0.00,VWS V14.00,2013-08-30 13:22:00,
2013-08-30 09:25:00,80.2,41.3,29.97,WSW,248,4.7,4.7,25,0.00,,---,0.00,VWS V14.00,2013-08-30 13:25:00,
2013-08-30 09:27:00,80.1,39.0,29.97,WSW,248,3.8,4.3,23,0.00,,---,0.00,VWS V14.00,2013-08-30 13:27:00,
2013-08-30 09:29:00,79.7,38.7,29.97,West,270,2.9,6.5,23,0.00,,---,0.00,VWS V14.00,2013-08-30 13:29:00,
2013-08-30 09:30:00,79.7,38.7,29.97,West,270,1.6,2.9,23,0.00,,---,0.00,VWS V14.00,2013-08-30 13:30:00,
2013-08-30 09:31:00,80.1,39.0,29.97,WSW,248,3.4,3.4,23,0.00,,---,0.00,VWS V14.00,2013-08-30 13:31:00,
2013-08-30 09:34:00,80.2,39.1,29.97,SSW,202,0.0,2.9,23,0.00,,---,0.00,VWS V14.00,2013-08-30 13:34:00,
2013-08-30 09:36:00,80.2,39.1,29.97,NW,315,0.0,2.5,23,0.00,,---,0.00,VWS V14.00,2013-08-30 13:36:00,
2013-08-30 09:39:00,80.1,37.8,29.97,West,270,2.5,3.4,22,0.00,,---,0.00,VWS V14.00,2013-08-30 13:39:00,
2013-08-30 09:41:00,79.7,37.5,29.97,West,270,5.4,5.4,22,0.00,,---,0.00,VWS V14.00,2013-08-30 13:41:00,
2013-08-30 09:44:00,79.3,37.2,29.97,West,270,2.7,2.7,22,0.00,,---,0.00,VWS V14.00,2013-08-30 13:44:00,
2013-08-30 09:46:00,79.5,37.4,29.97,WNW,292,1.6,5.6,22,0.00,,---,0.00,VWS V14.00,2013-08-30 13:46:00,
2013-08-30 09:47:00,79.5,37.4,29.97,NW,315,2.7,3.8,22,0.00,,---,0.00,VWS V14.00,2013-08-30 13:47:00,
2013-08-30 09:49:00,80.2,38.0,29.97,WNW,292,3.4,3.4,22,0.00,,---,0.00,VWS V14.00,2013-08-30 13:49:00,
2013-08-30 09:50:00,80.6,38.3,29.97,WNW,292,3.4,3.6,22,0.00,,---,0.00,VWS V14.00,2013-08-30 13:50:00,
2013-08-30 09:53:00,81.3,38.9,29.97,West,270,3.6,3.6,22,0.00,,---,0.00,VWS V14.00,2013-08-30 13:53:00,
2013-08-30 09:54:00,81.0,37.4,29.97,SW,225,4.9,6.0,21,0.00,,---,0.00,VWS V14.00,2013-08-30 13:54:00,
2013-08-30 09:55:00,81.0,37.4,29.97,WSW,248,5.6,7.6,21,0.00,,---,0.00,VWS V14.00,2013-08-30 13:55:00,
2013-08-30 09:59:00,80.1,37.8,29.97,West,270,3.6,4.3,22,0.00,,---,0.00,VWS V14.00,2013-08-30 13:59:00,
2013-08-30 10:00:00,80.1,36.7,29.97,WNW,292,4.7,10.3,21,0.00,,---,0.00,VWS V14.00,2013-08-30 14:00:00,
2013-08-30 10:05:00,79.7,36.3,29.97,West,270,7.2,7.2,21,0.00,,---,0.00,VWS V14.00,2013-08-30 14:05:00,
2013-08-30 10:06:00,79.7,36.3,29.97,West,270,2.5,7.2,21,0.00,,---,0.00,VWS V14.00,2013-08-30 14:06:00,
2013-08-30 10:07:00,79.7,36.3,29.97,West,270,3.4,4.7,21,0.00,,---,0.00,VWS V14.00,2013-08-30 14:07:00,
2013-08-30 10:11:00,79.3,37.2,29.97,West,270,0.0,2.7,22,0.00,,---,0.00,VWS V14.00,2013-08-30 14:11:00,
2013-08-30 10:12:00,79.5,37.4,29.97,West,270,6.3,6.3,22,0.00,,---,0.00,VWS V14.00,2013-08-30 14:12:00,
2013-08-30 10:13:00,79.3,37.2,29.97,WSW,248,2.9,6.3,22,0.00,,---,0.00,VWS V14.00,2013-08-30 14:13:00,
2013-08-30 10:14:00,79.3,37.2,29.97,WSW,248,3.1,4.7,22,0.00,,---,0.00,VWS V14.00,2013-08-30 14:14:00,
2013-08-30 10:15:00,79.3,37.2,29.97,WNW,292,4.3,4.3,22,0.00,,---,0.00,VWS V14.00,2013-08-30 14:15:00,
2013-08-30 10:17:00,79.3,37.2,29.94,WSW,248,3.4,4.0,22,0.00,,---,0.00,VWS V14.00,2013-08-30 14:17:00,
2013-08-30 10:20:00,79.3,37.2,29.94,West,270,0.0,2.5,22,0.00,,---,0.00,VWS V14.00,2013-08-30 14:20:00,
2013-08-30 10:21:00,79.9,37.7,29.94,West,270,2.9,2.9,22,0.00,,---,0.00,VWS V14.00,2013-08-30 14:21:00,
2013-08-30 10:23:00,79.9,37.7,29.94,SSW,202,2.9,4.0,22,0.00,,---,0.00,VWS V14.00,2013-08-30 14:23:00,
2013-08-30 10:24:00,79.9,37.7,29.94,SW,225,2.9,4.3,22,0.00,,---,0.00,VWS V14.00,2013-08-30 14:24:00,
2013-08-30 10:28:00,79.9,37.7,29.94,WNW,292,3.4,5.6,22,0.00,,---,0.00,VWS V14.00,2013-08-30 14:28:00,
2013-08-30 10:29:00,79.9,37.7,29.94,West,270,3.8,3.8,22,0.00,,---,0.00,VWS V14.00,2013-08-30 14:29:00,
2013-08-30 10:30:00,79.9,37.7,29.94,WSW,248,3.1,4.9,22,0.00,,---,0.00,VWS V14.00,2013-08-30 14:30:00,
2013-08-30 10:33:00,81.3,38.9,29.97,WSW,248,3.8,3.8,22,0.00,,---,0.00,VWS V14.00,2013-08-30 14:33:00,
2013-08-30 10:34:00,81.3,38.9,29.97,WSW,248,0.0,3.8,22,0.00,,---,0.00,VWS V14.00,2013-08-30 14:34:00,
2013-08-30 10:35:00,81.3,38.9,29.97,West,270,4.9,4.9,22,0.00,,---,0.00,VWS V14.00,2013-08-30 14:35:00,
2013-08-30 10:36:00,81.3,38.9,29.97,WSW,248,1.6,4.9,22,0.00,,---,0.00,VWS V14.00,2013-08-30 14:36:00,
2013-08-30 10:38:00,81.3,38.9,29.97,NNW,338,0.0,0.0,22,0.00,,---,0.00,VWS V14.00,2013-08-30 14:38:00,
2013-08-30 10:39:00,81.3,38.9,29.97,SW,225,2.9,2.9,22,0.00,,---,0.00,VWS V14.00,2013-08-30 14:39:00,
2013-08-30 10:41:00,82.2,38.4,29.97,NW,315,2.0,6.0,21,0.00,,---,0.00,VWS V14.00,2013-08-30 14:41:00,
2013-08-30 10:42:00,82.2,38.4,29.97,WNW,292,4.3,4.3,21,0.00,,---,0.00,VWS V14.00,2013-08-30 14:42:00,
2013-08-30 10:45:00,82.2,38.4,29.97,WNW,292,0.0,0.9,21,0.00,,---,0.00,VWS V14.00,2013-08-30 14:45:00,
2013-08-30 10:46:00,82.2,38.4,29.97,WNW,292,3.4,3.8,21,0.00,,---,0.00,VWS V14.00,2013-08-30 14:46:00,
2013-08-30 10:47:00,82.2,38.4,29.97,West,270,2.0,4.7,21,0.00,,---,0.00,VWS V14.00,2013-08-30 14:47:00,
2013-08-30 10:48:00,82.2,38.4,29.97,SW,225,5.8,5.8,21,0.00,,---,0.00,VWS V14.00,2013-08-30 14:48:00,
2013-08-30 10:51:00,81.5,37.8,29.97,WSW,248,3.6,3.6,21,0.00,,---,0.00,VWS V14.00,2013-08-30 14:51:00,
2013-08-30 10:52:00,81.5,37.8,29.97,WSW,248,5.8,5.8,21,0.00,,---,0.00,VWS V14.00,2013-08-30 14:52:00,
2013-08-30 10:55:00,81.0,37.4,29.97,SW,225,4.3,4.9,21,0.00,,---,0.00,VWS V14.00,2013-08-30 14:55:00,
2013-08-30 10:56:00,81.0,37.4,29.97,West,270,1.3,4.3,21,0.00,,---,0.00,VWS V14.00,2013-08-30 14:56:00,
2013-08-30 10:58:00,81.0,37.4,29.97,West,270,3.1,4.9,21,0.00,,---,0.00,VWS V14.00,2013-08-30 14:58:00,
2013-08-30 10:59:00,81.0,37.4,29.97,West,270,0.9,6.5,21,0.00,,---,0.00,VWS V14.00,2013-08-30 14:59:00,
2013-08-30 11:01:00,81.0,37.4,29.97,NNW,338,5.6,5.6,21,0.00,,---,0.00,VWS V14.00,2013-08-30 15:01:00,
2013-08-30 11:04:00,84.4,39.0,29.97,West,270,4.9,4.9,20,0.00,,---,0.00,VWS V14.00,2013-08-30 15:04:00,
2013-08-30 11:05:00,84.4,39.0,29.97,WNW,292,5.6,6.3,20,0.00,,---,0.00,VWS V14.00,2013-08-30 15:05:00,
2013-08-30 11:06:00,84.4,39.0,29.97,WNW,292,7.2,7.2,20,0.00,,---,0.00,VWS V14.00,2013-08-30 15:06:00,
2013-08-30 11:08:00,84.4,39.0,29.97,West,270,2.5,6.0,20,0.00,,---,0.00,VWS V14.00,2013-08-30 15:08:00,
2013-08-30 11:09:00,84.4,39.0,29.97,NNW,338,0.0,2.9,20,0.00,,---,0.00,VWS V14.00,2013-08-30 15:09:00,
2013-08-30 11:10:00,84.4,39.0,29.97,West,270,0.0,1.3,20,0.00,,---,0.00,VWS V14.00,2013-08-30 15:10:00,
2013-08-30 11:12:00,84.4,39.0,29.97,WNW,292,3.1,3.4,20,0.00,,---,0.00,VWS V14.00,2013-08-30 15:12:00,
2013-08-30 11:13:00,84.4,39.0,29.97,WSW,248,10.1,10.1,20,0.00,,---,0.00,VWS V14.00,2013-08-30 15:13:00,
2013-08-30 11:14:00,84.4,39.0,29.97,WSW,248,4.9,10.1,20,0.00,,---,0.00,VWS V14.00,2013-08-30 15:14:00,
2013-08-30 11:17:00,84.4,39.0,29.94,West,270,6.5,6.5,20,0.00,,---,0.00,VWS V14.00,2013-08-30 15:17:00,
2013-08-30 11:19:00,84.4,39.0,29.94,West,270,4.7,4.9,20,0.00,,---,0.00,VWS V14.00,2013-08-30 15:19:00,
2013-08-30 11:20:00,84.4,39.0,29.94,West,270,2.0,4.7,20,0.00,,---,0.00,VWS V14.00,2013-08-30 15:20:00,
2013-08-30 11:24:00,82.8,37.6,29.94,WSW,248,3.4,4.3,20,0.00,,---,0.00,VWS V14.00,2013-08-30 15:24:00,
2013-08-30 11:25:00,82.8,37.6,29.94,West,270,2.7,3.4,20,0.00,,---,0.00,VWS V14.00,2013-08-30 15:25:00,
2013-08-30 11:26:00,82.8,37.6,29.94,WSW,248,3.8,6.5,20,0.00,,---,0.00,VWS V14.00,2013-08-30 15:26:00,
2013-08-30 11:29:00,82.2,38.4,29.94,West,270,5.6,5.6,21,0.00,,---,0.00,VWS V14.00,2013-08-30 15:29:00,
2013-08-30 11:30:00,82.2,38.4,29.94,SW,225,1.6,5.6,21,0.00,,---,0.00,VWS V14.00,2013-08-30 15:30:00,
2013-08-30 11:33:00,82.2,38.4,29.97,WNW,292,2.5,2.5,21,0.00,,---,0.00,VWS V14.00,2013-08-30 15:33:00,
2013-08-30 11:34:00,82.2,38.4,29.97,WSW,248,3.8,3.8,21,0.00,,---,0.00,VWS V14.00,2013-08-30 15:34:00,
2013-08-30 11:36:00,82.2,38.4,29.97,SSW,202,2.0,4.3,21,0.00,,---,0.00,VWS V14.00,2013-08-30 15:36:00,
2013-08-30 11:39:00,82.2,38.4,29.97,WSW,248,2.0,4.3,21,0.00,,---,0.00,VWS V14.00,2013-08-30 15:39:00,
2013-08-30 11:40:00,82.2,38.4,29.97,WSW,248,4.0,4.3,21,0.00,,---,0.00,VWS V14.00,2013-08-30 15:40:00,
2013-08-30 11:44:00,85.3,39.7,29.97,West,270,2.9,2.9,20,0.00,,---,0.00,VWS V14.00,2013-08-30 15:44:00,
2013-08-30 11:45:00,85.3,39.7,29.97,WNW,292,3.4,4.7,20,0.00,,---,0.00,VWS V14.00,2013-08-30 15:45:00,
2013-08-30 11:46:00,85.6,40.0,29.97,NW,315,3.1,6.0,20,0.00,,---,0.00,VWS V14.00,2013-08-30 15:46:00,
2013-08-30 11:47:00,85.6,40.0,29.97,WSW,248,3.8,3.8,20,0.00,,---,0.00,VWS V14.00,2013-08-30 15:47:00,
2013-08-30 11:48:00,86.2,39.1,29.97,WNW,292,1.6,3.8,19,0.00,,---,0.00,VWS V14.00,2013-08-30 15:48:00,
2013-08-30 11:49:00,86.2,39.1,29.97,NW,315,3.1,3.1,19,0.00,,---,0.00,VWS V14.00,2013-08-30 15:49:00,
2013-08-30 11:52:00,87.1,39.9,29.97,West,270,2.7,4.3,19,0.00,,---,0.00,VWS V14.00,2013-08-30 15:52:00,
2013-08-30 11:53:00,87.1,39.9,29.97,WSW,248,2.9,3.8,19,0.00,,---,0.00,VWS V14.00,2013-08-30 15:53:00,
2013-08-30 11:54:00,87.1,39.9,29.97,West,270,5.6,5.6,19,0.00,,---,0.00,VWS V14.00,2013-08-30 15:54:00,
2013-08-30 11:55:00,85.3,39.7,29.97,SW,225,4.0,5.8,20,0.00,,---,0.00,VWS V14.00,2013-08-30 15:55:00,
2013-08-30 11:57:00,85.8,40.2,29.97,West,270,4.3,5.8,20,0.00,,---,0.00,VWS V14.00,2013-08-30 15:57:00,
2013-08-30 11:58:00,85.8,40.2,29.97,WSW,248,2.9,4.3,20,0.00,,---,0.00,VWS V14.00,2013-08-30 15:58:00,
2013-08-30 11:59:00,85.8,40.2,29.97,West,270,4.9,5.4,20,0.00,,---,0.00,VWS V14.00,2013-08-30 15:59:00,
2013-08-30 12:03:00,85.8,40.2,29.97,West,270,2.5,3.4,20,0.00,,---,0.00,VWS V14.00,2013-08-30 16:03:00,
2013-08-30 12:04:00,84.6,39.1,29.97,WNW,292,2.5,2.9,20,0.00,,---,0.00,VWS V14.00,2013-08-30 16:04:00,
2013-08-30 12:07:00,84.6,39.1,29.97,WSW,248,4.7,5.4,20,0.00,,---,0.00,VWS V14.00,2013-08-30 16:07:00,
2013-08-30 12:08:00,84.6,39.1,29.97,WNW,292,2.5,5.8,20,0.00,,---,0.00,VWS V14.00,2013-08-30 16:08:00,
2013-08-30 12:10:00,82.9,37.8,29.97,NW,315,0.9,2.0,20,0.00,,---,0.00,VWS V14.00,2013-08-30 16:10:00,
2013-08-30 12:12:00,82.4,37.3,29.97,WSW,248,3.8,4.3,20,0.00,,---,0.00,VWS V14.00,2013-08-30 16:12:00,
2013-08-30 12:13:00,82.4,37.3,29.97,West,270,4.9,6.3,20,0.00,,---,0.00,VWS V14.00,2013-08-30 16:13:00,
2013-08-30 12:14:00,81.9,36.9,29.97,WNW,292,4.3,4.9,20,0.00,,---,0.00,VWS V14.00,2013-08-30 16:14:00,
2013-08-30 12:16:00,81.9,36.9,29.97,WSW,248,3.1,3.4,20,0.00,,---,0.00,VWS V14.00,2013-08-30 16:16:00,
2013-08-30 12:18:00,81.9,38.1,29.94,West,270,3.4,4.9,21,0.00,,---,0.00,VWS V14.00,2013-08-30 16:18:00,
2013-08-30 12:20:00,81.9,38.1,29.94,SW,225,2.7,4.0,21,0.00,,---,0.00,VWS V14.00,2013-08-30 16:20:00,
2013-08-30 12:21:00,81.9,38.1,29.94,WSW,248,1.3,3.8,21,0.00,,---,0.00,VWS V14.00,2013-08-30 16:21:00,
2013-08-30 12:23:00,81.9,38.1,29.94,WNW,292,3.6,3.8,21,0.00,,---,0.00,VWS V14.00,2013-08-30 16:23:00,
2013-08-30 12:24:00,81.9,38.1,29.94,SSW,202,2.7,5.4,21,0.00,,---,0.00,VWS V14.00,2013-08-30 16:24:00,
2013-08-30 12:27:00,82.0,38.3,29.94,West,270,4.3,4.7,21,0.00,,---,0.00,VWS V14.00,2013-08-30 16:27:00,
2013-08-30 12:28:00,82.0,38.3,29.94,SW,225,3.4,4.3,21,0.00,,---,0.00,VWS V14.00,2013-08-30 16:28:00,
2013-08-30 12:31:00,82.0,38.3,29.94,SW,225,3.6,6.5,21,0.00,,---,0.00,VWS V14.00,2013-08-30 16:31:00,
2013-08-30 12:33:00,82.2,38.4,29.94,NW,315,3.6,6.3,21,0.00,,---,0.00,VWS V14.00,2013-08-30 16:33:00,
2013-08-30 12:34:00,82.2,38.4,29.94,WNW,292,2.7,6.5,21,0.00,,---,0.00,VWS V14.00,2013-08-30 16:34:00,
2013-08-30 12:37:00,82.6,38.7,29.94,WNW,292,2.9,2.9,21,0.00,,---,0.00,VWS V14.00,2013-08-30 16:37:00,
2013-08-30 12:38:00,82.6,38.7,29.94,West,270,3.6,4.3,21,0.00,,---,0.00,VWS V14.00,2013-08-30 16:38:00,
2013-08-30 12:39:00,83.1,39.2,29.94,West,270,3.6,7.2,21,0.00,,---,0.00,VWS V14.00,2013-08-30 16:39:00,
2013-08-30 12:43:00,82.9,39.0,29.94,WNW,292,3.6,3.6,21,0.00,,---,0.00,VWS V14.00,2013-08-30 16:43:00,
2013-08-30 12:46:00,82.9,39.0,29.94,WSW,248,2.7,3.6,21,0.00,,---,0.00,VWS V14.00,2013-08-30 16:46:00,
2013-08-30 12:47:00,82.9,39.0,29.94,West,270,3.6,4.3,21,0.00,,---,0.00,VWS V14.00,2013-08-30 16:47:00,
2013-08-30 12:51:00,84.0,39.9,29.94,West,270,5.6,5.6,21,0.00,,---,0.00,VWS V14.00,2013-08-30 16:51:00,
2013-08-30 12:52:00,85.1,39.6,29.94,West,270,4.7,5.6,20,0.00,,---,0.00,VWS V14.00,2013-08-30 16:52:00,
2013-08-30 12:56:00,86.0,39.0,29.94,WNW,292,0.0,6.0,19,0.00,,---,0.00,VWS V14.00,2013-08-30 16:56:00,
2013-08-30 12:57:00,86.4,39.3,29.94,SW,225,2.9,2.9,19,0.00,,---,0.00,VWS V14.00,2013-08-30 16:57:00,
2013-08-30 12:58:00,86.5,39.4,29.94,South,180,1.6,3.8,19,0.00,,---,0.00,VWS V14.00,2013-08-30 16:58:00,
2013-08-30 13:01:00,86.4,39.3,29.94,SSW,202,5.4,5.4,19,0.00,,---,0.00,VWS V14.00,2013-08-30 17:01:00,
2013-08-30 13:02:00,86.4,39.3,29.94,WNW,292,4.9,5.4,19,0.00,,---,0.00,VWS V14.00,2013-08-30 17:02:00,
2013-08-30 13:03:00,85.8,40.2,29.94,SW,225,3.4,4.9,20,0.00,,---,0.00,VWS V14.00,2013-08-30 17:03:00,
2013-08-30 13:04:00,85.8,40.2,29.94,WSW,248,2.7,3.4,20,0.00,,---,0.00,VWS V14.00,2013-08-30 17:04:00,
2013-08-30 13:07:00,86.9,39.7,29.94,West,270,3.4,4.7,19,0.00,,---,0.00,VWS V14.00,2013-08-30 17:07:00,
2013-08-30 13:09:00,86.9,39.7,29.94,WSW,248,3.1,4.7,19,0.00,,---,0.00,VWS V14.00,2013-08-30 17:09:00,
2013-08-30 13:10:00,86.9,39.7,29.94,West,270,4.0,6.9,19,0.00,,---,0.00,VWS V14.00,2013-08-30 17:10:00,
2013-08-30 13:13:00,86.0,39.0,29.94,West,270,8.1,8.1,19,0.00,,---,0.00,VWS V14.00,2013-08-30 17:13:00,
2013-08-30 13:15:00,86.0,39.0,29.94,West,270,6.3,6.3,19,0.00,,---,0.00,VWS V14.00,2013-08-30 17:15:00,
2013-08-30 13:16:00,86.0,39.0,29.94,West,270,6.0,6.3,19,0.00,,---,0.00,VWS V14.00,2013-08-30 17:16:00,
2013-08-30 13:17:00,86.0,39.0,29.94,SSW,202,2.0,6.0,19,0.00,,---,0.00,VWS V14.00,2013-08-30 17:17:00,
2013-08-30 13:18:00,86.0,39.0,29.94,WSW,248,5.4,8.1,19,0.00,,---,0.00,VWS V14.00,2013-08-30 17:18:00,
2013-08-30 13:21:00,86.0,39.0,29.94,West,270,4.0,6.0,19,0.00,,---,0.00,VWS V14.00,2013-08-30 17:21:00,
2013-08-30 13:24:00,86.0,39.0,29.94,WSW,248,4.3,4.3,19,0.00,,---,0.00,VWS V14.00,2013-08-30 17:24:00,
2013-08-30 13:25:00,86.0,39.0,29.94,SW,225,3.6,4.3,19,0.00,,---,0.00,VWS V14.00,2013-08-30 17:25:00,
2013-08-30 13:26:00,86.0,39.0,29.94,South,180,7.4,7.4,19,0.00,,---,0.00,VWS V14.00,2013-08-30 17:26:00,
2013-08-30 13:27:00,86.0,39.0,29.94,SSW,202,4.7,7.4,19,0.00,,---,0.00,VWS V14.00,2013-08-30 17:27:00,
2013-08-30 13:29:00,86.7,39.6,29.94,WNW,292,2.7,6.0,19,0.00,,---,0.00,VWS V14.00,2013-08-30 17:29:00,
2013-08-30 13:31:00,86.7,39.6,29.94,West,270,5.4,9.6,19,0.00,,---,0.00,VWS V14.00,2013-08-30 17:31:00,
2013-08-30 13:36:00,87.6,40.3,29.91,SSW,202,0.0,0.0,19,0.00,,---,0.00,VWS V14.00,2013-08-30 17:36:00,
2013-08-30 13:37:00,87.6,40.3,29.91,West,270,2.9,2.9,19,0.00,,---,0.00,VWS V14.00,2013-08-30 17:37:00,
2013-08-30 13:38:00,87.6,40.3,29.91,West,270,2.9,6.5,19,0.00,,---,0.00,VWS V14.00,2013-08-30 17:38:00,
2013-08-30 13:42:00,88.5,39.7,29.91,WSW,248,3.1,3.8,18,0.00,,---,0.00,VWS V14.00,2013-08-30 17:42:00,
2013-08-30 13:43:00,88.5,39.7,29.91,SW,225,2.7,3.1,18,0.00,,---,0.00,VWS V14.00,2013-08-30 17:43:00,
2013-08-30 13:44:00,88.5,39.7,29.91,SSW,202,2.0,3.1,18,0.00,,---,0.00,VWS V14.00,2013-08-30 17:44:00,
2013-08-30 13:47:00,87.4,40.2,29.91,WSW,248,0.0,4.0,19,0.00,,---,0.00,VWS V14.00,2013-08-30 17:47:00,
2013-08-30 13:48:00,87.4,40.2,29.91,WNW,292,0.0,0.0,19,0.00,,---,0.00,VWS V14.00,2013-08-30 17:48:00,
2013-08-30 13:49:00,87.4,40.2,29.91,West,270,4.0,5.6,19,0.00,,---,0.00,VWS V14.00,2013-08-30 17:49:00,
2013-08-30 13:52:00,86.9,39.7,29.91,WSW,248,2.0,3.4,19,0.00,,---,0.00,VWS V14.00,2013-08-30 17:52:00,
2013-08-30 13:54:00,86.5,39.4,29.91,SSW,202,1.6,4.9,19,0.00,,---,0.00,VWS V14.00,2013-08-30 17:54:00,
2013-08-30 13:55:00,86.5,39.4,29.91,WSW,248,4.7,7.8,19,0.00,,---,0.00,VWS V14.00,2013-08-30 17:55:00,
2013-08-30 13:56:00,86.5,39.4,29.91,West,270,4.9,7.2,19,0.00,,---,0.00,VWS V14.00,2013-08-30 17:56:00,
2013-08-30 13:59:00,85.8,38.8,29.91,WNW,292,0.9,2.2,19,0.00,,---,0.00,VWS V14.00,2013-08-30 17:59:00,
2013-08-30 14:00:00,85.8,38.8,29.91,West,270,3.4,3.4,19,0.00,,---,0.00,VWS V14.00,2013-08-30 18:00:00,
2013-08-30 14:02:00,87.6,40.3,29.91,SW,225,0.0,0.0,19,0.00,,---,0.00,VWS V14.00,2013-08-30 18:02:00,
2013-08-30 14:03:00,88.2,40.8,29.91,South,180,3.4,6.0,19,0.00,,---,0.00,VWS V14.00,2013-08-30 18:03:00,
2013-08-30 14:04:00,88.2,40.8,29.91,West,270,2.9,3.4,19,0.00,,---,0.00,VWS V14.00,2013-08-30 18:04:00,
2013-08-30 14:05:00,88.2,40.8,29.91,SSW,202,4.3,5.6,19,0.00,,---,0.00,VWS V14.00,2013-08-30 18:05:00,
2013-08-30 14:09:00,88.2,40.8,29.91,WSW,248,5.6,5.6,19,0.00,,---,0.00,VWS V14.00,2013-08-30 18:09:00,
2013-08-30 14:12:00,87.8,39.1,29.91,West,270,6.5,6.5,18,0.00,,---,0.00,VWS V14.00,2013-08-30 18:12:00,
2013-08-30 14:14:00,87.8,39.1,29.91,WSW,248,4.3,4.9,18,0.00,,---,0.00,VWS V14.00,2013-08-30 18:14:00,
2013-08-30 14:16:00,87.3,40.0,29.91,WSW,248,5.8,5.8,19,0.00,,---,0.00,VWS V14.00,2013-08-30 18:16:00,
2013-08-30 14:19:00,87.3,40.0,29.88,West,270,2.7,5.8,19,0.00,,---,0.00,VWS V14.00,2013-08-30 18:19:00,
2013-08-30 14:20:00,86.0,39.0,29.88,West,270,5.6,5.6,19,0.00,,---,0.00,VWS V14.00,2013-08-30 18:20:00,
2013-08-30 14:23:00,86.0,39.0,29.88,West,270,4.3,4.3,19,0.00,,---,0.00,VWS V14.00,2013-08-30 18:23:00,
2013-08-30 14:24:00,86.0,39.0,29.88,West,270,6.3,7.2,19,0.00,,---,0.00,VWS V14.00,2013-08-30 18:24:00,
2013-08-30 14:25:00,86.0,39.0,29.88,West,270,2.0,7.2,19,0.00,,---,0.00,VWS V14.00,2013-08-30 18:25:00,
2013-08-30 14:27:00,86.0,39.0,29.88,West,270,4.3,4.3,19,0.00,,---,0.00,VWS V14.00,2013-08-30 18:27:00,
2013-08-30 14:30:00,86.0,39.0,29.88,WNW,292,5.4,5.8,19,0.00,,---,0.00,VWS V14.00,2013-08-30 18:30:00,
2013-08-30 14:31:00,86.0,39.0,29.88,West,270,1.3,5.8,19,0.00,,---,0.00,VWS V14.00,2013-08-30 18:31:00,
2013-08-30 14:35:00,86.7,39.6,29.88,WSW,248,5.6,7.2,19,0.00,,---,0.00,VWS V14.00,2013-08-30 18:35:00,
2013-08-30 14:36:00,86.7,39.6,29.88,WNW,292,2.9,5.8,19,0.00,,---,0.00,VWS V14.00,2013-08-30 18:36:00,
2013-08-30 14:37:00,86.7,39.6,29.88,SSW,202,6.3,6.3,19,0.00,,---,0.00,VWS V14.00,2013-08-30 18:37:00,
2013-08-30 14:41:00,86.4,39.3,29.88,NW,315,4.3,4.3,19,0.00,,---,0.00,VWS V14.00,2013-08-30 18:41:00,
2013-08-30 14:42:00,86.9,39.7,29.88,West,270,1.6,4.3,19,0.00,,---,0.00,VWS V14.00,2013-08-30 18:42:00,
2013-08-30 14:43:00,86.9,39.7,29.88,WSW,248,8.5,8.5,19,0.00,,---,0.00,VWS V14.00,2013-08-30 18:43:00,
2013-08-30 14:45:00,86.9,39.7,29.88,West,270,3.8,6.0,19,0.00,,---,0.00,VWS V14.00,2013-08-30 18:45:00,
2013-08-30 14:46:00,86.9,39.7,29.88,West,270,5.4,5.4,19,0.00,,---,0.00,VWS V14.00,2013-08-30 18:46:00,
2013-08-30 14:47:00,86.9,39.7,29.91,WNW,292,3.6,5.4,19,0.00,,---,0.00,VWS V14.00,2013-08-30 18:47:00,
2013-08-30 14:48:00,87.1,39.9,29.91,NW,315,2.0,5.4,19,0.00,,---,0.00,VWS V14.00,2013-08-30 18:48:00,
2013-08-30 14:50:00,87.3,40.0,29.91,West,270,4.5,4.5,19,0.00,,---,0.00,VWS V14.00,2013-08-30 18:50:00,
2013-08-30 14:51:00,87.3,40.0,29.91,South,180,3.1,6.5,19,0.00,,---,0.00,VWS V14.00,2013-08-30 18:51:00,
2013-08-30 14:52:00,87.8,39.1,29.91,West,270,3.1,6.3,18,0.00,,---,0.00,VWS V14.00,2013-08-30 18:52:00,
2013-08-30 14:53:00,88.2,39.4,29.91,SW,225,2.0,3.1,18,0.00,,---,0.00,VWS V14.00,2013-08-30 18:53:00,
2013-08-30 14:56:00,88.3,39.5,29.91,WSW,248,4.0,4.0,18,0.00,,---,0.00,VWS V14.00,2013-08-30 18:56:00,
2013-08-30 14:58:00,89.1,40.1,29.91,SW,225,4.0,4.0,18,0.00,,---,0.00,VWS V14.00,2013-08-30 18:58:00,
2013-08-30 14:59:00,88.9,39.9,29.91,WNW,292,6.0,6.0,18,0.00,,---,0.00,VWS V14.00,2013-08-30 18:59:00,
2013-08-30 15:00:00,88.9,39.9,29.91,West,270,4.0,8.5,18,0.00,,---,0.00,VWS V14.00,2013-08-30 19:00:00,
2013-08-30 15:02:00,88.7,39.8,29.91,NW,315,0.0,5.8,18,0.00,,---,0.00,VWS V14.00,2013-08-30 19:02:00,
2013-08-30 15:03:00,88.7,39.8,29.91,WSW,248,3.1,4.9,18,0.00,,---,0.00,VWS V14.00,2013-08-30 19:03:00,
2013-08-30 15:04:00,89.6,40.5,29.91,West,270,2.9,5.6,18,0.00,,---,0.00,VWS V14.00,2013-08-30 19:04:00,
2013-08-30 15:06:00,89.4,40.4,29.91,WSW,248,2.5,4.3,18,0.00,,---,0.00,VWS V14.00,2013-08-30 19:06:00,
2013-08-30 15:10:00,89.6,40.5,29.91,NNW,338,3.1,5.6,18,0.00,,---,0.00,VWS V14.00,2013-08-30 19:10:00,
2013-08-30 15:11:00,89.6,40.5,29.91,West,270,5.8,5.8,18,0.00,,---,0.00,VWS V14.00,2013-08-30 19:11:00,
2013-08-30 15:12:00,88.2,39.4,29.91,NW,315,4.3,8.7,18,0.00,,---,0.00,VWS V14.00,2013-08-30 19:12:00,
2013-08-30 15:13:00,87.8,39.1,29.91,SW,225,3.8,4.9,18,0.00,,---,0.00,VWS V14.00,2013-08-30 19:13:00,
2013-08-30 15:15:00,87.4,38.8,29.91,WSW,248,0.0,4.7,18,0.00,,---,0.00,VWS V14.00,2013-08-30 19:15:00,
2013-08-30 15:17:00,87.4,38.8,29.91,North,0,2.7,4.7,18,0.00,,---,0.00,VWS V14.00,2013-08-30 19:17:00,
2013-08-30 15:20:00,88.2,39.4,29.91,WSW,248,4.3,4.3,18,0.00,,---,0.00,VWS V14.00,2013-08-30 19:20:00,
2013-08-30 15:21:00,88.2,39.4,29.91,West,270,5.8,7.4,18,0.00,,---,0.00,VWS V14.00,2013-08-30 19:21:00,
2013-08-30 15:22:00,88.2,39.4,29.91,WNW,292,4.3,5.8,18,0.00,,---,0.00,VWS V14.00,2013-08-30 19:22:00,
2013-08-30 15:23:00,88.2,39.4,29.91,West,270,4.0,4.3,18,0.00,,---,0.00,VWS V14.00,2013-08-30 19:23:00,
2013-08-30 15:25:00,88.3,39.5,29.91,SW,225,0.0,3.8,18,0.00,,---,0.00,VWS V14.00,2013-08-30 19:25:00,
2013-08-30 15:26:00,88.3,39.5,29.91,WSW,248,4.0,4.0,18,0.00,,---,0.00,VWS V14.00,2013-08-30 19:26:00,
2013-08-30 15:27:00,88.5,39.7,29.91,WSW,248,3.4,4.0,18,0.00,,---,0.00,VWS V14.00,2013-08-30 19:27:00,
2013-08-30 15:29:00,88.2,39.4,29.91,SSW,202,5.4,5.6,18,0.00,,---,0.00,VWS V14.00,2013-08-30 19:29:00,
2013-08-30 15:30:00,88.2,39.4,29.91,WSW,248,4.9,6.5,18,0.00,,---,0.00,VWS V14.00,2013-08-30 19:30:00,
2013-08-30 15:31:00,88.2,39.4,29.91,NW,315,6.5,6.5,18,0.00,,---,0.00,VWS V14.00,2013-08-30 19:31:00,
2013-08-30 15:35:00,87.3,38.6,29.91,West,270,3.1,5.4,18,0.00,,---,0.00,VWS V14.00,2013-08-30 19:35:00,
2013-08-30 15:36:00,87.3,38.6,29.91,West,270,1.6,3.8,18,0.00,,---,0.00,VWS V14.00,2013-08-30 19:36:00,
2013-08-30 15:39:00,87.4,38.8,29.91,West,270,1.1,2.9,18,0.00,,---,0.00,VWS V14.00,2013-08-30 19:39:00,
2013-08-30 15:40:00,87.8,39.1,29.91,NW,315,3.6,4.9,18,0.00,,---,0.00,VWS V14.00,2013-08-30 19:40:00,
2013-08-30 15:41:00,87.8,39.1,29.91,WNW,292,6.3,6.3,18,0.00,,---,0.00,VWS V14.00,2013-08-30 19:41:00,
2013-08-30 15:43:00,88.2,39.4,29.91,West,270,3.8,3.8,18,0.00,,---,0.00,VWS V14.00,2013-08-30 19:43:00,
2013-08-30 15:45:00,88.2,39.4,29.91,West,270,3.6,6.3,18,0.00,,---,0.00,VWS V14.00,2013-08-30 19:45:00,
2013-08-30 15:48:00,88.0,39.2,29.88,WSW,248,2.7,3.4,18,0.00,,---,0.00,VWS V14.00,2013-08-30 19:48:00,
2013-08-30 15:49:00,87.4,38.8,29.88,West,270,4.9,5.8,18,0.00,,---,0.00,VWS V14.00,2013-08-30 19:49:00,
2013-08-30 15:50:00,87.4,38.8,29.88,West,270,6.0,6.0,18,0.00,,---,0.00,VWS V14.00,2013-08-30 19:50:00,
2013-08-30 15:51:00,87.4,38.8,29.88,SW,225,5.6,6.0,18,0.00,,---,0.00,VWS V14.00,2013-08-30 19:51:00,
2013-08-30 15:54:00,87.1,38.5,29.88,WNW,292,3.8,4.3,18,0.00,,---,0.00,VWS V14.00,2013-08-30 19:54:00,
2013-08-30 15:56:00,87.8,39.1,29.88,West,270,5.8,6.0,18,0.00,,---,0.00,VWS V14.00,2013-08-30 19:56:00,
2013-08-30 15:58:00,88.0,39.2,29.88,WSW,248,3.4,6.3,18,0.00,,---,0.00,VWS V14.00,2013-08-30 19:58:00,
2013-08-30 15:59:00,87.8,39.1,29.88,WNW,292,3.4,5.4,18,0.00,,---,0.00,VWS V14.00,2013-08-30 19:59:00,
2013-08-30 16:03:00,87.6,38.9,29.88,WNW,292,4.7,5.6,18,0.00,,---,0.00,VWS V14.00,2013-08-30 20:03:00,
2013-08-30 16:04:00,87.6,38.9,29.88,West,270,4.3,5.8,18,0.00,,---,0.00,VWS V14.00,2013-08-30 20:04:00,
2013-08-30 16:05:00,87.6,38.9,29.88,WNW,292,4.9,8.5,18,0.00,,---,0.00,VWS V14.00,2013-08-30 20:05:00,
2013-08-30 16:06:00,87.6,38.9,29.88,NW,315,5.8,7.4,18,0.00,,---,0.00,VWS V14.00,2013-08-30 20:06:00,
2013-08-30 16:09:00,87.6,38.9,29.88,WSW,248,3.8,3.8,18,0.00,,---,0.00,VWS V14.00,2013-08-30 20:09:00,
2013-08-30 16:11:00,87.6,38.9,29.88,West,270,2.5,3.1,18,0.00,,---,0.00,VWS V14.00,2013-08-30 20:11:00,
2013-08-30 16:13:00,87.6,38.9,29.88,WSW,248,4.9,5.6,18,0.00,,---,0.00,VWS V14.00,2013-08-30 20:13:00,
2013-08-30 16:14:00,87.6,38.9,29.88,West,270,2.5,7.8,18,0.00,,---,0.00,VWS V14.00,2013-08-30 20:14:00,
2013-08-30 16:16:00,87.6,38.9,29.88,West,270,5.8,6.7,18,0.00,,---,0.00,VWS V14.00,2013-08-30 20:16:00,
2013-08-30 16:20:00,87.6,38.9,29.88,WSW,248,5.6,7.8,18,0.00,,---,0.00,VWS V14.00,2013-08-30 20:20:00,
2013-08-30 16:22:00,87.6,38.9,29.88,West,270,3.4,5.8,18,0.00,,---,0.00,VWS V14.00,2013-08-30 20:22:00,
2013-08-30 16:23:00,87.6,38.9,29.88,West,270,2.0,6.3,18,0.00,,---,0.00,VWS V14.00,2013-08-30 20:23:00,
2013-08-30 16:26:00,87.6,38.9,29.88,SW,225,6.5,7.2,18,0.00,,---,0.00,VWS V14.00,2013-08-30 20:26:00,
2013-08-30 16:28:00,87.6,38.9,29.88,WSW,248,2.7,8.5,18,0.00,,---,0.00,VWS V14.00,2013-08-30 20:28:00,
2013-08-30 16:31:00,87.6,38.9,29.88,WNW,292,4.0,5.6,18,0.00,,---,0.00,VWS V14.00,2013-08-30 20:31:00,
2013-08-30 16:32:00,87.6,38.9,29.91,West,270,3.6,4.0,18,0.00,,---,0.00,VWS V14.00,2013-08-30 20:32:00,
2013-08-30 16:33:00,87.6,38.9,29.91,West,270,6.0,6.0,18,0.00,,---,0.00,VWS V14.00,2013-08-30 20:33:00,
2013-08-30 16:34:00,87.6,38.9,29.91,West,270,5.8,7.6,18,0.00,,---,0.00,VWS V14.00,2013-08-30 20:34:00,
2013-08-30 16:37:00,87.6,38.9,29.91,WSW,248,6.0,6.0,18,0.00,,---,0.00,VWS V14.00,2013-08-30 20:37:00,
2013-08-30 16:38:00,87.6,38.9,29.91,WNW,292,1.6,6.0,18,0.00,,---,0.00,VWS V14.00,2013-08-30 20:38:00,
2013-08-30 16:39:00,87.6,38.9,29.91,West,270,4.9,6.3,18,0.00,,---,0.00,VWS V14.00,2013-08-30 20:39:00,
2013-08-30 16:40:00,86.4,39.3,29.91,WSW,248,4.0,4.9,19,0.00,,---,0.00,VWS V14.00,2013-08-30 20:40:00,
2013-08-30 16:42:00,86.4,39.3,29.91,West,270,4.3,11.0,19,0.00,,---,0.00,VWS V14.00,2013-08-30 20:42:00,
2013-08-30 16:45:00,86.4,39.3,29.91,West,270,4.9,6.3,19,0.00,,---,0.00,VWS V14.00,2013-08-30 20:45:00,
2013-08-30 16:46:00,86.4,39.3,29.91,West,270,7.6,9.0,19,0.00,,---,0.00,VWS V14.00,2013-08-30 20:46:00,
2013-08-30 16:50:00,86.4,39.3,29.91,WNW,292,3.1,4.7,19,0.00,,---,0.00,VWS V14.00,2013-08-30 20:50:00,
2013-08-30 16:52:00,86.4,39.3,29.91,West,270,2.9,4.9,19,0.00,,---,0.00,VWS V14.00,2013-08-30 20:52:00,
2013-08-30 16:53:00,86.4,39.3,29.91,WNW,292,3.8,3.8,19,0.00,,---,0.00,VWS V14.00,2013-08-30 20:53:00,
2013-08-30 16:55:00,86.4,39.3,29.91,WSW,248,6.9,6.9,19,0.00,,---,0.00,VWS V14.00,2013-08-30 20:55:00,
2013-08-30 16:59:00,86.4,39.3,29.91,WSW,248,8.1,8.7,19,0.00,,---,0.00,VWS V14.00,2013-08-30 20:59:00,
2013-08-30 17:00:00,86.4,39.3,29.91,WSW,248,5.8,8.1,19,0.00,,---,0.00,VWS V14.00,2013-08-30 21:00:00,
2013-08-30 17:01:00,86.4,39.3,29.91,WSW,248,5.4,8.7,19,0.00,,---,0.00,VWS V14.00,2013-08-30 21:01:00,
2013-08-30 17:06:00,87.3,38.6,29.88,West,270,2.7,4.9,18,0.00,,---,0.00,VWS V14.00,2013-08-30 21:06:00,
2013-08-30 17:07:00,87.3,38.6,29.88,WNW,292,3.1,3.6,18,0.00,,---,0.00,VWS V14.00,2013-08-30 21:07:00,
2013-08-30 17:09:00,87.3,38.6,29.88,WSW,248,2.9,8.5,18,0.00,,---,0.00,VWS V14.00,2013-08-30 21:09:00,
2013-08-30 17:10:00,87.3,38.6,29.88,WSW,248,5.8,5.8,18,0.00,,---,0.00,VWS V14.00,2013-08-30 21:10:00,
2013-08-30 17:11:00,86.4,39.3,29.88,WSW,248,3.8,5.8,19,0.00,,---,0.00,VWS V14.00,2013-08-30 21:11:00,
2013-08-30 17:12:00,86.4,39.3,29.88,WSW,248,3.6,5.6,19,0.00,,---,0.00,VWS V14.00,2013-08-30 21:12:00,
2013-08-30 17:16:00,85.8,38.8,29.88,WSW,248,5.4,7.6,19,0.00,,---,0.00,VWS V14.00,2013-08-30 21:16:00,
2013-08-30 17:17:00,85.5,38.5,29.88,WSW,248,7.8,8.5,19,0.00,,---,0.00,VWS V14.00,2013-08-30 21:17:00,
2013-08-30 17:18:00,85.5,38.5,29.88,SW,225,5.8,8.7,19,0.00,,---,0.00,VWS V14.00,2013-08-30 21:18:00,
2013-08-30 17:20:00,85.3,38.4,29.88,West,270,3.4,3.4,19,0.00,,---,0.00,VWS V14.00,2013-08-30 21:20:00,
2013-08-30 17:23:00,85.3,38.4,29.88,West,270,6.3,6.3,19,0.00,,---,0.00,VWS V14.00,2013-08-30 21:23:00,
2013-08-30 17:24:00,85.3,38.4,29.88,WNW,292,6.0,6.3,19,0.00,,---,0.00,VWS V14.00,2013-08-30 21:24:00,
2013-08-30 17:26:00,85.3,38.4,29.88,WSW,248,7.2,7.2,19,0.00,,---,0.00,VWS V14.00,2013-08-30 21:26:00,
2013-08-30 17:27:00,85.3,38.4,29.88,WNW,292,2.5,7.2,19,0.00,,---,0.00,VWS V14.00,2013-08-30 21:27:00,
2013-08-30 17:30:00,85.3,38.4,29.88,West,270,5.4,7.4,19,0.00,,---,0.00,VWS V14.00,2013-08-30 21:30:00,
2013-08-30 17:32:00,85.3,38.4,29.91,West,270,3.8,5.6,19,0.00,,---,0.00,VWS V14.00,2013-08-30 21:32:00,
2013-08-30 17:33:00,84.0,38.7,29.91,WSW,248,3.4,8.1,20,0.00,,---,0.00,VWS V14.00,2013-08-30 21:33:00,
2013-08-30 17:35:00,83.8,38.5,29.91,West,270,3.8,4.7,20,0.00,,---,0.00,VWS V14.00,2013-08-30 21:35:00,
2013-08-30 17:36:00,83.7,38.4,29.91,West,270,3.6,3.8,20,0.00,,---,0.00,VWS V14.00,2013-08-30 21:36:00,
2013-08-30 17:37:00,83.7,38.4,29.91,WSW,248,8.1,8.1,20,0.00,,---,0.00,VWS V14.00,2013-08-30 21:37:00,
2013-08-30 17:39:00,83.7,38.4,29.91,WSW,248,5.4,8.1,20,0.00,,---,0.00,VWS V14.00,2013-08-30 21:39:00,
2013-08-30 17:42:00,83.1,37.9,29.91,West,270,3.6,7.2,20,0.00,,---,0.00,VWS V14.00,2013-08-30 21:42:00,
2013-08-30 17:43:00,83.1,37.9,29.91,WNW,292,3.4,6.5,20,0.00,,---,0.00,VWS V14.00,2013-08-30 21:43:00,
2013-08-30 17:45:00,83.3,38.1,29.91,West,270,3.4,3.4,20,0.00,,---,0.00,VWS V14.00,2013-08-30 21:45:00,
2013-08-30 17:47:00,83.3,38.1,29.91,West,270,3.6,5.4,20,0.00,,---,0.00,VWS V14.00,2013-08-30 21:47:00,
2013-08-30 17:50:00,83.1,37.9,29.91,West,270,5.6,7.6,20,0.00,,---,0.00,VWS V14.00,2013-08-30 21:50:00,
2013-08-30 17:51:00,83.1,37.9,29.91,WSW,248,4.3,5.6,20,0.00,,---,0.00,VWS V14.00,2013-08-30 21:51:00,
2013-08-30 17:54:00,82.8,37.6,29.91,West,270,3.4,5.4,20,0.00,,---,0.00,VWS V14.00,2013-08-30 21:54:00,
2013-08-30 17:55:00,82.6,37.5,29.91,West,270,2.7,5.6,20,0.00,,---,0.00,VWS V14.00,2013-08-30 21:55:00,
2013-08-30 17:58:00,82.4,37.3,29.91,WNW,292,4.3,7.4,20,0.00,,---,0.00,VWS V14.00,2013-08-30 21:58:00,
2013-08-30 17:59:00,82.4,37.3,29.91,West,270,3.6,4.3,20,0.00,,---,0.00,VWS V14.00,2013-08-30 21:59:00,
2013-08-30 18:01:00,82.2,38.4,29.91,WSW,248,6.5,8.7,21,0.00,,---,0.00,VWS V14.00,2013-08-30 22:01:00,
2013-08-30 18:04:00,82.0,38.3,29.88,West,270,4.9,6.3,21,0.00,,---,0.00,VWS V14.00,2013-08-30 22:04:00,
2013-08-30 18:06:00,81.9,38.1,29.88,West,270,4.9,6.3,21,0.00,,---,0.00,VWS V14.00,2013-08-30 22:06:00,
2013-08-30 18:07:00,81.7,38.0,29.88,SSW,202,4.3,4.9,21,0.00,,---,0.00,VWS V14.00,2013-08-30 22:07:00,
2013-08-30 18:08:00,81.7,38.0,29.88,SSW,202,2.9,5.8,21,0.00,,---,0.00,VWS V14.00,2013-08-30 22:08:00,
2013-08-30 18:10:00,81.7,38.0,29.88,West,270,7.4,7.4,21,0.00,,---,0.00,VWS V14.00,2013-08-30 22:10:00,
2013-08-30 18:13:00,81.3,37.7,29.88,WSW,248,5.4,6.3,21,0.00,,---,0.00,VWS V14.00,2013-08-30 22:13:00,
2013-08-30 18:14:00,81.3,37.7,29.88,NW,315,2.7,5.8,21,0.00,,---,0.00,VWS V14.00,2013-08-30 22:14:00,
2013-08-30 18:16:00,81.3,37.7,29.88,WSW,248,4.0,5.4,21,0.00,,---,0.00,VWS V14.00,2013-08-30 22:16:00,
2013-08-30 18:18:00,81.3,37.7,29.88,WSW,248,2.5,4.7,21,0.00,,---,0.00,VWS V14.00,2013-08-30 22:18:00,
2013-08-30 18:19:00,81.3,37.7,29.88,SSW,202,3.4,4.3,21,0.00,,---,0.00,VWS V14.00,2013-08-30 22:19:00,
2013-08-30 18:21:00,81.1,38.7,29.88,West,270,2.5,4.0,22,0.00,,---,0.00,VWS V14.00,2013-08-30 22:21:00,
2013-08-30 18:23:00,81.1,38.7,29.88,West,270,4.0,4.0,22,0.00,,---,0.00,VWS V14.00,2013-08-30 22:23:00,
2013-08-30 18:24:00,81.1,38.7,29.88,West,270,2.5,5.4,22,0.00,,---,0.00,VWS V14.00,2013-08-30 22:24:00,
2013-08-30 18:26:00,81.0,38.6,29.88,SSW,202,2.7,4.9,22,0.00,,---,0.00,VWS V14.00,2013-08-30 22:26:00,
2013-08-30 18:28:00,80.8,38.4,29.88,WSW,248,3.4,5.8,22,0.00,,---,0.00,VWS V14.00,2013-08-30 22:28:00,
2013-08-30 18:29:00,80.8,38.4,29.88,SW,225,5.4,5.8,22,0.00,,---,0.00,VWS V14.00,2013-08-30 22:29:00,
2013-08-30 18:30:00,80.8,38.4,29.88,WSW,248,3.1,5.4,22,0.00,,---,0.00,VWS V14.00,2013-08-30 22:30:00,
2013-08-30 18:33:00,80.8,38.4,29.85,West,270,4.0,4.3,22,0.00,,---,0.00,VWS V14.00,2013-08-30 22:33:00,
2013-08-30 18:36:00,80.6,38.3,29.85,WSW,248,4.3,4.3,22,0.00,,---,0.00,VWS V14.00,2013-08-30 22:36:00,
2013-08-30 18:37:00,80.6,38.3,29.85,West,270,2.9,4.7,22,0.00,,---,0.00,VWS V14.00,2013-08-30 22:37:00,
2013-08-30 18:38:00,80.6,38.3,29.85,WSW,248,6.0,7.2,22,0.00,,---,0.00,VWS V14.00,2013-08-30 22:38:00,
2013-08-30 18:39:00,80.4,39.3,29.85,WNW,292,3.8,6.0,23,0.00,,---,0.00,VWS V14.00,2013-08-30 22:39:00,
2013-08-30 18:42:00,80.6,38.3,29.85,WSW,248,2.5,2.7,22,0.00,,---,0.00,VWS V14.00,2013-08-30 22:42:00,
2013-08-30 18:43:00,80.6,38.3,29.85,West,270,3.8,3.8,22,0.00,,---,0.00,VWS V14.00,2013-08-30 22:43:00,
2013-08-30 18:46:00,80.6,39.4,29.85,West,270,2.2,4.9,23,0.00,,---,0.00,VWS V14.00,2013-08-30 22:46:00,
2013-08-30 18:47:00,80.6,39.4,29.85,WSW,248,2.2,2.7,23,0.00,,---,0.00,VWS V14.00,2013-08-30 22:47:00,
2013-08-30 18:49:00,80.6,39.4,29.85,WNW,292,0.0,2.5,23,0.00,,---,0.00,VWS V14.00,2013-08-30 22:49:00,
2013-08-30 18:51:00,80.4,39.3,29.85,WSW,248,2.5,4.9,23,0.00,,---,0.00,VWS V14.00,2013-08-30 22:51:00,
2013-08-30 18:52:00,80.4,39.3,29.85,WNW,292,3.1,5.8,23,0.00,,---,0.00,VWS V14.00,2013-08-30 22:52:00,
2013-08-30 18:53:00,80.4,39.3,29.85,West,270,1.6,3.8,23,0.00,,---,0.00,VWS V14.00,2013-08-30 22:53:00,
2013-08-30 18:56:00,80.2,39.1,29.85,WSW,248,2.9,6.3,23,0.00,,---,0.00,VWS V14.00,2013-08-30 22:56:00,
2013-08-30 18:57:00,80.1,39.0,29.85,WSW,248,3.4,9.4,23,0.00,,---,0.00,VWS V14.00,2013-08-30 22:57:00,
2013-08-30 18:58:00,80.1,39.0,29.85,SW,225,4.0,4.3,23,0.00,,---,0.00,VWS V14.00,2013-08-30 22:58:00,
2013-08-30 19:01:00,79.9,38.8,29.85,West,270,3.8,5.8,23,0.00,,---,0.00,VWS V14.00,2013-08-30 23:01:00,
2013-08-30 19:02:00,79.7,38.7,29.85,WSW,248,0.9,3.8,23,0.00,,---,0.00,VWS V14.00,2013-08-30 23:02:00,
2013-08-30 19:06:00,79.7,38.7,29.85,West,270,2.7,3.8,23,0.00,,---,0.00,VWS V14.00,2013-08-30 23:06:00,
2013-08-30 19:07:00,79.5,39.6,29.85,WSW,248,3.6,3.6,24,0.00,,---,0.00,VWS V14.00,2013-08-30 23:07:00,
2013-08-30 19:08:00,79.5,39.6,29.85,WSW,248,2.9,3.6,24,0.00,,---,0.00,VWS V14.00,2013-08-30 23:08:00,
2013-08-30 19:10:00,79.3,39.5,29.85,WNW,292,2.5,2.5,24,0.00,,---,0.00,VWS V14.00,2013-08-30 23:10:00,
2013-08-30 19:12:00,79.3,39.5,29.85,West,270,3.6,8.1,24,0.00,,---,0.00,VWS V14.00,2013-08-30 23:12:00,
2013-08-30 19:13:00,79.2,39.3,29.85,WSW,248,2.7,4.9,24,0.00,,---,0.00,VWS V14.00,2013-08-30 23:13:00,
2013-08-30 19:14:00,79.2,39.3,29.85,WSW,248,3.1,3.6,24,0.00,,---,0.00,VWS V14.00,2013-08-30 23:14:00,
2013-08-30 19:16:00,79.0,39.2,29.85,West,270,2.9,2.9,24,0.00,,---,0.00,VWS V14.00,2013-08-30 23:16:00,
2013-08-30 19:18:00,79.0,39.2,29.85,West,270,0.0,2.0,24,0.00,,---,0.00,VWS V14.00,2013-08-30 23:18:00,
2013-08-30 19:19:00,78.8,39.0,29.85,West,270,0.0,3.1,24,0.00,,---,0.00,VWS V14.00,2013-08-30 23:19:00,
2013-08-30 19:23:00,78.6,39.9,29.85,West,270,0.9,2.0,25,0.00,,---,0.00,VWS V14.00,2013-08-30 23:23:00,
2013-08-30 19:24:00,78.6,39.9,29.85,WNW,292,2.5,2.5,25,0.00,,---,0.00,VWS V14.00,2013-08-30 23:24:00,
2013-08-30 19:25:00,78.4,39.7,29.85,WSW,248,2.9,3.8,25,0.00,,---,0.00,VWS V14.00,2013-08-30 23:25:00,
2013-08-30 19:27:00,78.4,39.7,29.85,WSW,248,2.7,2.7,25,0.00,,---,0.00,VWS V14.00,2013-08-30 23:27:00,
2013-08-30 19:30:00,78.3,40.6,29.85,WNW,292,2.7,4.0,26,0.00,,---,0.00,VWS V14.00,2013-08-30 23:30:00,
2013-08-30 19:33:00,78.1,40.4,29.85,WNW,292,2.9,2.9,26,0.00,,---,0.00,VWS V14.00,2013-08-30 23:33:00,
2013-08-30 19:34:00,78.1,40.4,29.85,WSW,248,1.6,2.9,26,0.00,,---,0.00,VWS V14.00,2013-08-30 23:34:00,
2013-08-30 19:36:00,78.1,41.4,29.85,West,270,4.0,4.0,27,0.00,,---,0.00,VWS V14.00,2013-08-30 23:36:00,
2013-08-30 19:38:00,77.9,41.3,29.85,WSW,248,0.9,2.9,27,0.00,,---,0.00,VWS V14.00,2013-08-30 23:38:00,
2013-08-30 19:39:00,77.9,41.3,29.85,SW,225,0.9,2.0,27,0.00,,---,0.00,VWS V14.00,2013-08-30 23:39:00,
2013-08-30 19:42:00,77.7,41.1,29.85,WSW,248,2.0,3.1,27,0.00,,---,0.00,VWS V14.00,2013-08-30 23:42:00,
2013-08-30 19:43:00,77.7,41.1,29.85,WSW,248,1.6,2.2,27,0.00,,---,0.00,VWS V14.00,2013-08-30 23:43:00,
2013-08-30 19:44:00,77.7,42.0,29.85,SW,225,3.1,3.1,28,0.00,,---,0.00,VWS V14.00,2013-08-30 23:44:00,
2013-08-30 19:46:00,77.7,43.0,29.85,SSW,202,3.8,4.0,29,0.00,,---,0.00,VWS V14.00,2013-08-30 23:46:00,
2013-08-30 19:48:00,77.5,41.9,29.85,WSW,248,2.0,3.1,28,0.00,,---,0.00,VWS V14.00,2013-08-30 23:48:00,
2013-08-30 19:49:00,77.5,41.9,29.85,West,270,1.3,2.7,28,0.00,,---,0.00,VWS V14.00,2013-08-30 23:49:00,
2013-08-30 19:50:00,77.5,41.9,29.85,WSW,248,2.5,2.5,28,0.00,,---,0.00,VWS V14.00,2013-08-30 23:50:00,
2013-08-30 19:54:00,77.4,41.7,29.85,WSW,248,1.6,3.4,28,0.00,,---,0.00,VWS V14.00,2013-08-30 23:54:00,
2013-08-30 19:55:00,77.4,42.7,29.85,West,270,2.5,2.5,29,0.00,,---,0.00,VWS V14.00,2013-08-30 23:55:00,
2013-08-30 19:56:00,77.4,42.7,29.85,WSW,248,3.1,3.6,29,0.00,,---,0.00,VWS V14.00,2013-08-30 23:56:00,
2013-08-30 19:59:00,77.4,43.5,29.85,SSW,202,2.5,3.8,30,0.00,,---,0.00,VWS V14.00,2013-08-30 23:59:00,
2013-08-30 20:01:00,77.2,43.4,29.85,West,270,3.4,7.6,30,0.00,,---,0.00,VWS V14.00,2013-08-31 00:01:00,
2013-08-30 20:02:00,77.2,43.4,29.85,SSW,202,2.5,3.4,30,0.00,,---,0.00,VWS V14.00,2013-08-31 00:02:00,
2013-08-30 20:05:00,77.2,43.4,29.85,WSW,248,2.9,2.9,30,0.00,,---,0.00,VWS V14.00,2013-08-31 00:05:00,
2013-08-30 20:09:00,77.2,43.4,29.85,WSW,248,1.6,7.6,30,0.00,,---,0.00,VWS V14.00,2013-08-31 00:09:00,
2013-08-30 20:10:00,77.2,43.4,29.85,SW,225,1.3,3.8,30,0.00,,---,0.00,VWS V14.00,2013-08-31 00:10:00,
2013-08-30 20:15:00,76.8,43.9,29.85,SW,225,0.9,2.2,31,0.00,,---,0.00,VWS V14.00,2013-08-31 00:15:00,
2013-08-30 20:16:00,76.8,43.9,29.85,SW,225,0.0,0.9,31,0.00,,---,0.00,VWS V14.00,2013-08-31 00:16:00,
2013-08-30 20:17:00,76.8,43.9,29.85,WSW,248,3.4,3.4,31,0.00,,---,0.00,VWS V14.00,2013-08-31 00:17:00,
2013-08-30 20:19:00,76.8,43.9,29.85,WSW,248,3.1,4.0,31,0.00,,---,0.00,VWS V14.00,2013-08-31 00:19:00,
2013-08-30 20:20:00,76.6,43.8,29.85,WSW,248,0.9,3.1,31,0.00,,---,0.00,VWS V14.00,2013-08-31 00:20:00,
2013-08-30 20:22:00,76.6,43.8,29.85,West,270,2.9,3.4,31,0.00,,---,0.00,VWS V14.00,2013-08-31 00:22:00,
2013-08-30 20:23:00,76.6,43.8,29.85,SW,225,0.0,2.9,31,0.00,,---,0.00,VWS V14.00,2013-08-31 00:23:00,
2013-08-30 20:24:00,76.6,43.8,29.85,West,270,0.0,3.4,31,0.00,,---,0.00,VWS V14.00,2013-08-31 00:24:00,
2013-08-30 20:26:00,76.6,43.8,29.85,WSW,248,0.0,1.1,31,0.00,,---,0.00,VWS V14.00,2013-08-31 00:26:00,
2013-08-30 20:28:00,76.6,43.8,29.85,SSW,202,3.6,3.6,31,0.00,,---,0.00,VWS V14.00,2013-08-31 00:28:00,
2013-08-30 20:29:00,76.6,43.8,29.85,SW,225,3.4,3.6,31,0.00,,---,0.00,VWS V14.00,2013-08-31 00:29:00,
2013-08-30 20:30:00,76.5,43.6,29.85,WSW,248,2.9,3.4,31,0.00,,---,0.00,VWS V14.00,2013-08-31 00:30:00,
2013-08-30 20:31:00,76.5,43.6,29.85,West,270,2.7,5.4,31,0.00,,---,0.00,VWS V14.00,2013-08-31 00:31:00,
2013-08-30 20:32:00,76.5,43.6,29.85,West,270,1.6,3.4,31,0.00,,---,0.00,VWS V14.00,2013-08-31 00:32:00,
2013-08-30 20:37:00,76.3,43.5,29.85,SSW,202,4.0,4.3,31,0.00,,---,0.00,VWS V14.00,2013-08-31 00:37:00,
2013-08-30 20:39:00,76.3,43.5,29.85,SW,225,2.0,4.3,31,0.00,,---,0.00,VWS V14.00,2013-08-31 00:39:00,
2013-08-30 20:40:00,76.3,43.5,29.85,SW,225,3.8,3.8,31,0.00,,---,0.00,VWS V14.00,2013-08-31 00:40:00,
2013-08-30 20:42:00,76.3,43.5,29.85,SW,225,2.5,2.9,31,0.00,,---,0.00,VWS V14.00,2013-08-31 00:42:00,
2013-08-30 20:43:00,76.3,43.5,29.85,WSW,248,0.0,2.5,31,0.00,,---,0.00,VWS V14.00,2013-08-31 00:43:00,
2013-08-30 20:45:00,76.3,43.5,29.85,SSW,202,2.9,3.6,31,0.00,,---,0.00,VWS V14.00,2013-08-31 00:45:00,
2013-08-30 20:48:00,76.3,43.5,29.82,SW,225,1.6,3.1,31,0.00,,---,0.00,VWS V14.00,2013-08-31 00:48:00,
2013-08-30 20:49:00,76.3,43.5,29.82,WSW,248,0.0,1.6,31,0.00,,---,0.00,VWS V14.00,2013-08-31 00:49:00,
2013-08-30 20:50:00,76.3,43.5,29.82,WSW,248,1.1,2.2,31,0.00,,---,0.00,VWS V14.00,2013-08-31 00:50:00,
2013-08-30 20:53:00,75.7,43.0,29.82,WNW,292,0.0,0.0,31,0.00,,---,0.00,VWS V14.00,2013-08-31 00:53:00,
2013-08-30 20:55:00,75.6,42.8,29.82,WSW,248,2.0,2.2,31,0.00,,---,0.00,VWS V14.00,2013-08-31 00:55:00,
2013-08-30 20:57:00,75.6,42.8,29.82,WSW,248,0.0,2.2,31,0.00,,---,0.00,VWS V14.00,2013-08-31 00:57:00,
2013-08-30 20:58:00,75.6,42.8,29.82,SSW,202,0.0,1.1,31,0.00,,---,0.00,VWS V14.00,2013-08-31 00:58:00,
2013-08-30 21:00:00,75.6,42.8,29.82,SW,225,1.6,3.4,31,0.00,,---,0.00,VWS V14.00,2013-08-31 01:00:00,
2013-08-30 21:02:00,75.6,42.8,29.85,SW,225,3.6,3.6,31,0.00,,---,0.00,VWS V14.00,2013-08-31 01:02:00,
2013-08-30 21:05:00,75.6,42.8,29.85,WSW,248,2.5,2.9,31,0.00,,---,0.00,VWS V14.00,2013-08-31 01:05:00,
2013-08-30 21:07:00,75.6,43.7,29.85,SW,225,2.0,4.9,32,0.00,,---,0.00,VWS V14.00,2013-08-31 01:07:00,
2013-08-30 21:09:00,75.6,43.7,29.85,West,270,7.8,7.8,32,0.00,,---,0.00,VWS V14.00,2013-08-31 01:09:00,
2013-08-30 21:12:00,75.6,43.7,29.85,SW,225,2.5,2.5,32,0.00,,---,0.00,VWS V14.00,2013-08-31 01:12:00,
2013-08-30 21:14:00,75.6,43.7,29.85,SW,225,3.1,3.8,32,0.00,,---,0.00,VWS V14.00,2013-08-31 01:14:00,
2013-08-30 21:15:00,75.6,43.7,29.85,SSW,202,2.5,3.4,32,0.00,,---,0.00,VWS V14.00,2013-08-31 01:15:00,
2013-08-30 21:18:00,75.6,43.7,29.85,West,270,3.1,7.2,32,0.00,,---,0.00,VWS V14.00,2013-08-31 01:18:00,
2013-08-30 21:20:00,75.6,43.7,29.85,WSW,248,0.0,3.1,32,0.00,,---,0.00,VWS V14.00,2013-08-31 01:20:00,
2013-08-30 21:22:00,75.6,43.7,29.85,West,270,2.2,3.8,32,0.00,,---,0.00,VWS V14.00,2013-08-31 01:22:00,
2013-08-30 21:23:00,75.6,43.7,29.85,WNW,292,0.0,3.1,32,0.00,,---,0.00,VWS V14.00,2013-08-31 01:23:00,
2013-08-30 21:24:00,75.6,43.7,29.85,WSW,248,0.0,2.7,32,0.00,,---,0.00,VWS V14.00,2013-08-31 01:24:00,
2013-08-30 21:25:00,75.6,43.7,29.85,West,270,2.5,2.7,32,0.00,,---,0.00,VWS V14.00,2013-08-31 01:25:00,
2013-08-30 21:28:00,75.6,43.7,29.85,WSW,248,0.0,0.0,32,0.00,,---,0.00,VWS V14.00,2013-08-31 01:28:00,
2013-08-30 21:29:00,75.6,43.7,29.85,West,270,0.0,0.0,32,0.00,,---,0.00,VWS V14.00,2013-08-31 01:29:00,
2013-08-30 21:30:00,75.6,43.7,29.85,West,270,3.1,3.1,32,0.00,,---,0.00,VWS V14.00,2013-08-31 01:30:00,
2013-08-30 21:32:00,75.6,43.7,29.85,SSW,202,2.5,3.4,32,0.00,,---,0.00,VWS V14.00,2013-08-31 01:32:00,
2013-08-30 21:35:00,75.6,43.7,29.85,WSW,248,2.7,4.3,32,0.00,,---,0.00,VWS V14.00,2013-08-31 01:35:00,
2013-08-30 21:36:00,75.6,43.7,29.85,WSW,248,8.5,8.5,32,0.00,,---,0.00,VWS V14.00,2013-08-31 01:36:00,
2013-08-30 21:37:00,75.6,43.7,29.85,WSW,248,3.1,8.5,32,0.00,,---,0.00,VWS V14.00,2013-08-31 01:37:00,
2013-08-30 21:38:00,75.6,43.7,29.85,WSW,248,3.1,3.6,32,0.00,,---,0.00,VWS V14.00,2013-08-31 01:38:00,
2013-08-30 21:39:00,75.6,43.7,29.85,WSW,248,3.6,3.6,32,0.00,,---,0.00,VWS V14.00,2013-08-31 01:39:00,
2013-08-30 21:42:00,75.6,43.7,29.85,SW,225,2.5,3.6,32,0.00,,---,0.00,VWS V14.00,2013-08-31 01:42:00,
2013-08-30 21:43:00,75.6,43.7,29.85,West,270,0.9,2.5,32,0.00,,---,0.00,VWS V14.00,2013-08-31 01:43:00,
2013-08-30 21:46:00,75.6,43.7,29.85,WSW,248,2.7,2.9,32,0.00,,---,0.00,VWS V14.00,2013-08-31 01:46:00,
2013-08-30 21:47:00,75.6,43.7,29.85,West,270,4.0,4.0,32,0.00,,---,0.00,VWS V14.00,2013-08-31 01:47:00,
2013-08-30 21:48:00,75.6,43.7,29.85,West,270,2.5,4.0,32,0.00,,---,0.00,VWS V14.00,2013-08-31 01:48:00,
2013-08-30 21:49:00,75.6,43.7,29.85,SSW,202,3.1,3.1,32,0.00,,---,0.00,VWS V14.00,2013-08-31 01:49:00,
2013-08-30 21:51:00,75.6,43.7,29.85,West,270,1.6,3.4,32,0.00,,---,0.00,VWS V14.00,2013-08-31 01:51:00,
2013-08-30 21:53:00,75.6,43.7,29.85,WSW,248,2.7,4.0,32,0.00,,---,0.00,VWS V14.00,2013-08-31 01:53:00,
2013-08-30 21:54:00,75.6,43.7,29.85,WSW,248,2.2,3.1,32,0.00,,---,0.00,VWS V14.00,2013-08-31 01:54:00,
2013-08-30 21:55:00,75.6,43.7,29.85,West,270,2.5,3.4,32,0.00,,---,0.00,VWS V14.00,2013-08-31 01:55:00,
2013-08-30 21:59:00,75.6,43.7,29.85,SW,225,4.5,4.5,32,0.00,,---,0.00,VWS V14.00,2013-08-31 01:59:00,
2013-08-30 22:00:00,75.6,43.7,29.85,WSW,248,2.0,5.6,32,0.00,,---,0.00,VWS V14.00,2013-08-31 02:00:00,
2013-08-30 22:01:00,75.6,43.7,29.85,WNW,292,2.7,3.6,32,0.00,,---,0.00,VWS V14.00,2013-08-31 02:01:00,
2013-08-30 22:02:00,75.6,43.7,29.88,West,270,2.5,3.8,32,0.00,,---,0.00,VWS V14.00,2013-08-31 02:02:00,
2013-08-30 22:03:00,75.6,43.7,29.88,West,270,4.0,4.0,32,0.00,,---,0.00,VWS V14.00,2013-08-31 02:03:00,
2013-08-30 22:07:00,75.6,43.7,29.88,SW,225,4.3,4.3,32,0.00,,---,0.00,VWS V14.00,2013-08-31 02:07:00,
2013-08-30 22:08:00,74.7,42.9,29.88,SW,225,3.6,8.5,32,0.00,,---,0.00,VWS V14.00,2013-08-31 02:08:00,
2013-08-30 22:11:00,74.7,42.9,29.88,SSW,202,2.9,5.8,32,0.00,,---,0.00,VWS V14.00,2013-08-31 02:11:00,
2013-08-30 22:12:00,74.7,42.9,29.88,SSW,202,4.3,4.9,32,0.00,,---,0.00,VWS V14.00,2013-08-31 02:12:00,
2013-08-30 22:13:00,74.7,42.9,29.88,SW,225,6.5,6.5,32,0.00,,---,0.00,VWS V14.00,2013-08-31 02:13:00,
2013-08-30 22:14:00,74.7,42.9,29.88,SSW,202,2.0,6.5,32,0.00,,---,0.00,VWS V14.00,2013-08-31 02:14:00,
2013-08-30 22:17:00,74.7,42.9,29.88,WSW,248,1.6,2.9,32,0.00,,---,0.00,VWS V14.00,2013-08-31 02:17:00,
2013-08-30 22:20:00,74.7,42.9,29.88,SSW,202,2.9,3.1,32,0.00,,---,0.00,VWS V14.00,2013-08-31 02:20:00,
2013-08-30 22:21:00,74.7,42.9,29.88,SSW,202,4.0,8.1,32,0.00,,---,0.00,VWS V14.00,2013-08-31 02:21:00,
2013-08-30 22:22:00,74.7,42.9,29.88,West,270,2.5,6.3,32,0.00,,---,0.00,VWS V14.00,2013-08-31 02:22:00,
2013-08-30 22:27:00,74.3,42.6,29.88,West,270,4.3,4.7,32,0.00,,---,0.00,VWS V14.00,2013-08-31 02:27:00,
2013-08-30 22:28:00,74.3,42.6,29.88,SSW,202,2.7,4.3,32,0.00,,---,0.00,VWS V14.00,2013-08-31 02:28:00,
2013-08-30 22:30:00,74.3,42.6,29.88,SW,225,4.9,4.9,32,0.00,,---,0.00,VWS V14.00,2013-08-31 02:30:00,
2013-08-30 22:33:00,74.5,42.7,29.85,WSW,248,2.5,3.4,32,0.00,,---,0.00,VWS V14.00,2013-08-31 02:33:00,
2013-08-30 22:34:00,74.3,42.6,29.85,SW,225,2.2,4.0,32,0.00,,---,0.00,VWS V14.00,2013-08-31 02:34:00,
2013-08-30 22:36:00,74.3,42.6,29.85,SW,225,4.0,4.0,32,0.00,,---,0.00,VWS V14.00,2013-08-31 02:36:00,
2013-08-30 22:38:00,74.3,42.6,29.85,SSW,202,2.5,2.5,32,0.00,,---,0.00,VWS V14.00,2013-08-31 02:38:00,
2013-08-30 22:39:00,74.3,42.6,29.85,SW,225,1.6,3.6,32,0.00,,---,0.00,VWS V14.00,2013-08-31 02:39:00,
2013-08-30 22:42:00,74.3,42.6,29.85,West,270,5.6,5.6,32,0.00,,---,0.00,VWS V14.00,2013-08-31 02:42:00,
2013-08-30 22:43:00,74.3,42.6,29.85,WSW,248,2.7,5.6,32,0.00,,---,0.00,VWS V14.00,2013-08-31 02:43:00,
2013-08-30 22:44:00,74.3,42.6,29.85,WSW,248,1.6,2.7,32,0.00,,---,0.00,VWS V14.00,2013-08-31 02:44:00,
2013-08-30 22:45:00,74.3,42.6,29.85,West,270,0.0,1.6,32,0.00,,---,0.00,VWS V14.00,2013-08-31 02:45:00,
2013-08-30 22:47:00,74.3,42.6,29.85,West,270,1.1,4.7,32,0.00,,---,0.00,VWS V14.00,2013-08-31 02:47:00,
2013-08-30 22:50:00,74.3,42.6,29.85,WSW,248,1.6,2.5,32,0.00,,---,0.00,VWS V14.00,2013-08-31 02:50:00,
2013-08-30 22:51:00,74.3,42.6,29.85,SW,225,2.9,2.9,32,0.00,,---,0.00,VWS V14.00,2013-08-31 02:51:00,
2013-08-30 22:53:00,74.3,42.6,29.85,WSW,248,2.0,2.5,32,0.00,,---,0.00,VWS V14.00,2013-08-31 02:53:00,
2013-08-30 22:54:00,74.3,42.6,29.85,WSW,248,2.0,2.0,32,0.00,,---,0.00,VWS V14.00,2013-08-31 02:54:00,
2013-08-30 22:56:00,74.3,42.6,29.85,West,270,2.9,2.9,32,0.00,,---,0.00,VWS V14.00,2013-08-31 02:56:00,
2013-08-30 22:57:00,74.3,42.6,29.85,WSW,248,2.5,2.9,32,0.00,,---,0.00,VWS V14.00,2013-08-31 02:57:00,
2013-08-30 22:59:00,74.3,42.6,29.85,West,270,0.0,2.5,32,0.00,,---,0.00,VWS V14.00,2013-08-31 02:59:00,
2013-08-30 23:01:00,74.3,42.6,29.85,WSW,248,3.4,3.6,32,0.00,,---,0.00,VWS V14.00,2013-08-31 03:01:00,
2013-08-30 23:03:00,74.3,42.6,29.88,WNW,292,3.8,3.8,32,0.00,,---,0.00,VWS V14.00,2013-08-31 03:03:00,
2013-08-30 23:04:00,74.3,42.6,29.88,WSW,248,2.9,3.8,32,0.00,,---,0.00,VWS V14.00,2013-08-31 03:04:00,
2013-08-30 23:08:00,74.1,41.6,29.88,West,270,0.0,1.3,31,0.00,,---,0.00,VWS V14.00,2013-08-31 03:08:00,
2013-08-30 23:09:00,74.1,41.6,29.88,West,270,0.0,0.0,31,0.00,,---,0.00,VWS V14.00,2013-08-31 03:09:00,
2013-08-30 23:10:00,74.1,41.6,29.88,WSW,248,3.1,3.1,31,0.00,,---,0.00,VWS V14.00,2013-08-31 03:10:00,
2013-08-30 23:13:00,74.1,42.4,29.88,SW,225,2.0,3.6,32,0.00,,---,0.00,VWS V14.00,2013-08-31 03:13:00,
2013-08-30 23:14:00,74.1,42.4,29.88,WSW,248,4.3,4.3,32,0.00,,---,0.00,VWS V14.00,2013-08-31 03:14:00,
2013-08-30 23:18:00,74.1,42.4,29.85,West,270,1.1,2.5,32,0.00,,---,0.00,VWS V14.00,2013-08-31 03:18:00,
2013-08-30 23:19:00,74.1,42.4,29.85,West,270,0.0,1.1,32,0.00,,---,0.00,VWS V14.00,2013-08-31 03:19:00,
2013-08-30 23:20:00,74.1,42.4,29.85,WSW,248,0.0,0.0,32,0.00,,---,0.00,VWS V14.00,2013-08-31 03:20:00,
2013-08-30 23:21:00,74.1,42.4,29.85,West,270,0.0,0.0,32,0.00,,---,0.00,VWS V14.00,2013-08-31 03:21:00,
2013-08-30 23:25:00,74.1,42.4,29.85,WNW,292,3.6,3.6,32,0.00,,---,0.00,VWS V14.00,2013-08-31 03:25:00,
2013-08-30 23:26:00,74.1,42.4,29.85,SW,225,2.5,3.6,32,0.00,,---,0.00,VWS V14.00,2013-08-31 03:26:00,
2013-08-30 23:29:00,74.1,42.4,29.85,West,270,3.6,3.8,32,0.00,,---,0.00,VWS V14.00,2013-08-31 03:29:00,
2013-08-30 23:30:00,74.1,41.6,29.85,West,270,2.9,3.6,31,0.00,,---,0.00,VWS V14.00,2013-08-31 03:30:00,
2013-08-30 23:31:00,74.1,41.6,29.85,West,270,0.0,2.9,31,0.00,,---,0.00,VWS V14.00,2013-08-31 03:31:00,
2013-08-30 23:32:00,74.1,41.6,29.88,WNW,292,2.7,5.4,31,0.00,,---,0.00,VWS V14.00,2013-08-31 03:32:00,
2013-08-30 23:35:00,74.1,41.6,29.88,West,270,0.0,5.6,31,0.00,,---,0.00,VWS V14.00,2013-08-31 03:35:00,
2013-08-30 23:36:00,74.1,41.6,29.88,West,270,0.0,0.0,31,0.00,,---,0.00,VWS V14.00,2013-08-31 03:36:00,
2013-08-30 23:37:00,73.9,41.4,29.88,West,270,1.6,4.9,31,0.00,,---,0.00,VWS V14.00,2013-08-31 03:37:00,
2013-08-30 23:38:00,73.9,41.4,29.88,WSW,248,2.7,2.7,31,0.00,,---,0.00,VWS V14.00,2013-08-31 03:38:00,
2013-08-30 23:39:00,73.9,41.4,29.88,West,270,2.7,3.1,31,0.00,,---,0.00,VWS V14.00,2013-08-31 03:39:00,
2013-08-30 23:40:00,73.9,41.4,29.88,WSW,248,1.3,2.7,31,0.00,,---,0.00,VWS V14.00,2013-08-31 03:40:00,
2013-08-30 23:42:00,73.9,41.4,29.88,West,270,3.4,3.6,31,0.00,,---,0.00,VWS V14.00,2013-08-31 03:42:00,
2013-08-30 23:44:00,73.9,41.4,29.88,WSW,248,1.6,3.6,31,0.00,,---,0.00,VWS V14.00,2013-08-31 03:44:00,
2013-08-30 23:46:00,73.9,41.4,29.88,SW,225,0.0,2.9,31,0.00,,---,0.00,VWS V14.00,2013-08-31 03:46:00,
2013-08-30 23:47:00,73.9,41.4,29.88,West,270,0.0,0.0,31,0.00,,---,0.00,VWS V14.00,2013-08-31 03:47:00,
2013-08-30 23:48:00,73.9,41.4,29.88,West,270,0.0,0.0,31,0.00,,---,0.00,VWS V14.00,2013-08-31 03:48:00,
2013-08-30 23:49:00,73.9,41.4,29.88,WSW,248,0.0,0.0,31,0.00,,---,0.00,VWS V14.00,2013-08-31 03:49:00,
2013-08-30 23:52:00,73.8,41.3,29.88,West,270,3.8,3.8,31,0.00,,---,0.00,VWS V14.00,2013-08-31 03:52:00,
2013-08-30 23:54:00,73.8,41.3,29.88,WSW,248,2.5,3.1,31,0.00,,---,0.00,VWS V14.00,2013-08-31 03:54:00,
2013-08-30 23:55:00,73.8,41.3,29.88,WSW,248,4.0,4.0,31,0.00,,---,0.00,VWS V14.00,2013-08-31 03:55:00,
2013-08-30 23:57:00,73.8,41.3,29.88,SSW,202,0.0,3.8,31,0.00,,---,0.00,VWS V14.00,2013-08-31 03:57:00,
2013-08-30 23:58:00,73.8,41.3,29.88,WSW,248,0.0,0.0,31,0.00,,---,0.00,VWS V14.00,2013-08-31 03:58:00,